Time,TemperatureF,DewpointF,PressureIn,WindDirection,WindDirectionDegrees,WindSpeedMPH,WindSpeedGustMPH,Humidity,HourlyPrecipIn,Conditions,Clouds,dailyrainin,SoftwareType,DateUTC
2013-10-10 00:00:00,69.8,66.4,29.98,NE,43,4.0,8.0,89,0.00,,CLR,0.00,VWS V14.01,2013-10-10 04:00:00,
2013-10-10 00:01:00,69.8,66.4,29.98,NE,53,7.0,8.0,89,0.00,,CLR,0.00,VWS V14.01,2013-10-10 04:01:00,
2013-10-10 00:05:00,69.7,66.3,29.98,NE,54,3.0,7.0,89,0.00,,BKN048,0.00,VWS V14.01,2013-10-10 04:05:00,
2013-10-10 00:06:00,69.7,66.3,29.98,NE,56,2.0,7.0,89,0.00,,CLR,0.00,VWS V14.01,2013-10-10 04:06:00,
2013-10-10 00:10:00,69.6,66.2,29.97,NNE,23,7.0,7.0,89,0.00,,BKN048,0.00,VWS V14.01,2013-10-10 04:10:00,
2013-10-10 00:11:00,69.6,66.2,29.97,NNE,23,7.0,7.0,89,0.00,,CLR,0.00,VWS V14.01,2013-10-10 04:11:00,
2013-10-10 00:12:00,69.6,66.2,29.98,ENE,57,3.0,8.0,89,0.00,,CLR,0.00,VWS V14.01,2013-10-10 04:12:00,
2013-10-10 00:15:00,69.5,66.1,29.97,NE,37,4.0,8.0,89,0.00,,BKN048,0.00,VWS V14.01,2013-10-10 04:15:00,
2013-10-10 00:16:00,69.5,66.1,29.97,NNE,18,5.0,5.0,89,0.00,,CLR,0.00,VWS V14.01,2013-10-10 04:16:00,
2013-10-10 00:17:00,69.4,66.0,29.97,NNE,21,8.0,9.0,89,0.00,,CLR,0.00,VWS V14.01,2013-10-10 04:17:00,
2013-10-10 00:20:00,69.4,66.0,29.97,NE,34,4.0,9.0,89,0.00,,BKN048,0.00,VWS V14.01,2013-10-10 04:20:00,
2013-10-10 00:21:00,69.4,66.0,29.97,NW,317,3.0,4.0,89,0.00,,CLR,0.00,VWS V14.01,2013-10-10 04:21:00,
2013-10-10 00:22:00,69.4,66.0,29.97,NNW,338,2.0,4.0,89,0.00,,CLR,0.00,VWS V14.01,2013-10-10 04:22:00,
2013-10-10 00:25:00,69.3,65.9,29.97,NE,37,4.0,10.0,89,0.00,,BKN048,0.00,VWS V14.01,2013-10-10 04:25:00,
2013-10-10 00:26:00,69.3,65.9,29.97,NE,56,2.0,5.0,89,0.00,,CLR,0.00,VWS V14.01,2013-10-10 04:26:00,
2013-10-10 00:27:00,69.3,65.9,29.97,North,8,2.0,7.0,89,0.00,,CLR,0.00,VWS V14.01,2013-10-10 04:27:00,
2013-10-10 00:30:00,69.2,65.8,29.97,NNE,27,4.0,7.0,89,0.00,,BKN048,0.00,VWS V14.01,2013-10-10 04:30:00,
2013-10-10 00:31:00,69.2,65.8,29.97,NE,51,4.0,4.0,89,0.00,,CLR,0.00,VWS V14.01,2013-10-10 04:31:00,
2013-10-10 00:32:00,69.2,65.8,29.97,NNE,30,4.0,6.0,89,0.00,,CLR,0.00,VWS V14.01,2013-10-10 04:32:00,
2013-10-10 00:33:00,69.2,65.8,29.97,NE,34,2.0,6.0,89,0.00,,CLR,0.00,VWS V14.01,2013-10-10 04:33:00,
2013-10-10 00:35:00,69.2,65.8,29.97,NNE,16,1.0,9.0,89,0.00,,BKN048,0.00,VWS V14.01,2013-10-10 04:35:00,
2013-10-10 00:37:00,69.2,65.8,29.98,NNW,347,2.0,4.0,89,0.00,,CLR,0.00,VWS V14.01,2013-10-10 04:37:00,
2013-10-10 00:38:00,69.1,65.7,29.98,ENE,64,4.0,5.0,89,0.00,,CLR,0.00,VWS V14.01,2013-10-10 04:38:00,
2013-10-10 00:40:00,69.0,65.9,29.97,NNE,33,5.0,8.0,90,0.00,,BKN048,0.00,VWS V14.01,2013-10-10 04:40:00,
2013-10-10 00:42:00,69.1,66.1,29.98,NNW,339,4.0,6.0,90,0.00,,CLR,0.00,VWS V14.01,2013-10-10 04:42:00,
2013-10-10 00:43:00,69.0,65.9,29.97,NE,34,1.0,6.0,90,0.00,,CLR,0.00,VWS V14.01,2013-10-10 04:43:00,
2013-10-10 00:45:00,69.0,65.9,29.97,NE,55,2.0,6.0,90,0.00,,BKN048,0.00,VWS V14.01,2013-10-10 04:45:00,
2013-10-10 00:47:00,69.0,65.9,29.97,NE,41,4.0,4.0,90,0.00,,CLR,0.00,VWS V14.01,2013-10-10 04:47:00,
2013-10-10 00:48:00,68.9,65.8,29.97,NNE,29,6.0,7.0,90,0.00,,CLR,0.00,VWS V14.01,2013-10-10 04:48:00,
2013-10-10 00:50:00,68.9,65.8,29.97,NNE,14,5.0,7.0,90,0.00,,BKN048,0.00,VWS V14.01,2013-10-10 04:50:00,
2013-10-10 00:52:00,68.8,65.8,29.97,NNE,12,3.0,11.0,90,0.00,,CLR,0.00,VWS V14.01,2013-10-10 04:52:00,
2013-10-10 00:53:00,68.8,65.8,29.97,NE,43,4.0,11.0,90,0.00,,CLR,0.00,VWS V14.01,2013-10-10 04:53:00,
2013-10-10 00:54:00,68.8,65.8,29.97,NE,39,3.0,11.0,90,0.00,,CLR,0.00,VWS V14.01,2013-10-10 04:54:00,
2013-10-10 00:55:00,68.8,65.8,29.97,NE,36,2.0,11.0,90,0.00,,BKN048,0.00,VWS V14.01,2013-10-10 04:55:00,
2013-10-10 00:57:00,68.8,65.8,29.97,NE,41,3.0,4.0,90,0.00,,CLR,0.00,VWS V14.01,2013-10-10 04:57:00,
2013-10-10 00:58:00,68.8,65.8,29.97,NNE,26,3.0,4.0,90,0.00,,CLR,0.00,VWS V14.01,2013-10-10 04:58:00,
2013-10-10 00:59:00,68.7,65.7,29.97,North,6,3.0,4.0,90,0.00,,CLR,0.00,VWS V14.01,2013-10-10 04:59:00,
2013-10-10 01:00:00,68.7,65.7,29.97,NNE,15,4.0,5.0,90,0.00,,BKN048,0.00,VWS V14.01,2013-10-10 05:00:00,
2013-10-10 01:02:00,68.6,65.6,29.97,NNE,18,2.0,5.0,90,0.00,,CLR,0.00,VWS V14.01,2013-10-10 05:02:00,
2013-10-10 01:03:00,68.6,65.6,29.97,North,5,1.0,5.0,90,0.00,,CLR,0.00,VWS V14.01,2013-10-10 05:03:00,
2013-10-10 01:04:00,68.6,65.6,29.97,NE,41,2.0,5.0,90,0.00,,CLR,0.00,VWS V14.01,2013-10-10 05:04:00,
2013-10-10 01:05:00,68.6,65.6,29.97,NNE,14,4.0,5.0,90,0.00,,CLR,0.00,VWS V14.01,2013-10-10 05:05:00,
2013-10-10 01:07:00,68.5,65.8,29.97,NE,34,1.0,4.0,91,0.00,,CLR,0.00,VWS V14.01,2013-10-10 05:07:00,
2013-10-10 01:08:00,68.5,65.8,29.97,NE,40,3.0,4.0,91,0.00,,CLR,0.00,VWS V14.01,2013-10-10 05:08:00,
2013-10-10 01:09:00,68.4,65.7,29.97,NNE,25,2.0,6.0,91,0.00,,CLR,0.00,VWS V14.01,2013-10-10 05:09:00,
2013-10-10 01:10:00,68.4,65.7,29.97,NNE,28,3.0,6.0,91,0.00,,CLR,0.00,VWS V14.01,2013-10-10 05:10:00,
2013-10-10 01:12:00,68.4,65.7,29.97,NE,41,2.0,5.0,91,0.00,,CLR,0.00,VWS V14.01,2013-10-10 05:12:00,
2013-10-10 01:13:00,68.4,65.7,29.97,NE,41,2.0,5.0,91,0.00,,CLR,0.00,VWS V14.01,2013-10-10 05:13:00,
2013-10-10 01:14:00,68.3,65.6,29.97,NE,39,5.0,8.0,91,0.00,,CLR,0.00,VWS V14.01,2013-10-10 05:14:00,
2013-10-10 01:15:00,68.3,65.6,29.97,NNE,20,2.0,8.0,91,0.00,,BKN048,0.00,VWS V14.01,2013-10-10 05:15:00,
2013-10-10 01:16:00,68.3,65.6,29.97,NNE,20,2.0,8.0,91,0.00,,CLR,0.00,VWS V14.01,2013-10-10 05:16:00,
2013-10-10 01:17:00,68.2,65.5,29.97,NE,48,4.0,8.0,91,0.00,,CLR,0.00,VWS V14.01,2013-10-10 05:17:00,
2013-10-10 01:18:00,68.2,65.5,29.97,NNE,25,3.0,8.0,91,0.00,,CLR,0.00,VWS V14.01,2013-10-10 05:18:00,
2013-10-10 01:19:00,68.2,65.5,29.97,NW,323,2.0,8.0,91,0.00,,CLR,0.00,VWS V14.01,2013-10-10 05:19:00,
2013-10-10 01:20:00,68.1,65.4,29.97,NNE,33,2.0,8.0,91,0.00,,BKN048,0.00,VWS V14.01,2013-10-10 05:20:00,
2013-10-10 01:21:00,68.1,65.4,29.97,NNE,33,2.0,8.0,91,0.00,,CLR,0.00,VWS V14.01,2013-10-10 05:21:00,
2013-10-10 01:23:00,68.1,65.4,29.97,North,8,1.0,5.0,91,0.00,,CLR,0.00,VWS V14.01,2013-10-10 05:23:00,
2013-10-10 01:24:00,68.1,65.4,29.97,ENE,58,3.0,5.0,91,0.00,,CLR,0.00,VWS V14.01,2013-10-10 05:24:00,
2013-10-10 01:25:00,68.0,65.3,29.97,NE,46,2.0,5.0,91,0.00,,CLR,0.00,VWS V14.01,2013-10-10 05:25:00,
2013-10-10 01:26:00,68.0,65.3,29.97,North,3,2.0,2.0,91,0.00,,CLR,0.00,VWS V14.01,2013-10-10 05:26:00,
2013-10-10 01:28:00,67.9,65.2,29.97,North,5,4.0,6.0,91,0.00,,CLR,0.00,VWS V14.01,2013-10-10 05:28:00,
2013-10-10 01:29:00,67.9,65.2,29.97,North,11,2.0,6.0,91,0.00,,CLR,0.00,VWS V14.01,2013-10-10 05:29:00,
2013-10-10 01:30:00,67.9,65.2,29.97,NNE,27,4.0,6.0,91,0.00,,CLR,0.00,VWS V14.01,2013-10-10 05:30:00,
2013-10-10 01:31:00,67.9,65.2,29.97,NNE,23,4.0,5.0,91,0.00,,CLR,0.00,VWS V14.01,2013-10-10 05:31:00,
2013-10-10 01:33:00,67.8,65.4,29.96,NE,42,2.0,5.0,92,0.00,,CLR,0.00,VWS V14.01,2013-10-10 05:33:00,
2013-10-10 01:34:00,67.8,65.4,29.97,NE,41,3.0,5.0,92,0.00,,CLR,0.00,VWS V14.01,2013-10-10 05:34:00,
2013-10-10 01:35:00,67.8,65.4,29.96,ENE,71,1.0,5.0,92,0.00,,CLR,0.00,VWS V14.01,2013-10-10 05:35:00,
2013-10-10 01:36:00,67.8,65.4,29.96,ENE,78,1.0,2.0,92,0.00,,CLR,0.00,VWS V14.01,2013-10-10 05:36:00,
2013-10-10 01:38:00,67.7,65.3,29.97,North,349,2.0,4.0,92,0.00,,CLR,0.00,VWS V14.01,2013-10-10 05:38:00,
2013-10-10 01:39:00,67.7,65.3,29.97,NE,41,4.0,6.0,92,0.00,,CLR,0.00,VWS V14.01,2013-10-10 05:39:00,
2013-10-10 01:40:00,67.7,65.3,29.97,NNE,23,2.0,6.0,92,0.00,,CLR,0.00,VWS V14.01,2013-10-10 05:40:00,
2013-10-10 01:41:00,67.7,65.3,29.97,NNE,18,4.0,6.0,92,0.00,,CLR,0.00,VWS V14.01,2013-10-10 05:41:00,
2013-10-10 01:43:00,67.7,65.3,29.97,NE,49,4.0,5.0,92,0.00,,CLR,0.00,VWS V14.01,2013-10-10 05:43:00,
2013-10-10 01:45:00,67.7,65.3,29.97,NNE,15,3.0,6.0,92,0.00,,CLR,0.00,VWS V14.01,2013-10-10 05:45:00,
2013-10-10 01:46:00,67.7,65.3,29.97,NNE,25,1.0,1.0,92,0.00,,CLR,0.00,VWS V14.01,2013-10-10 05:46:00,
2013-10-10 01:47:00,67.6,65.2,29.97,NE,37,2.0,2.0,92,0.00,,CLR,0.00,VWS V14.01,2013-10-10 05:47:00,
2013-10-10 01:48:00,67.6,65.2,29.97,NE,49,3.0,6.0,92,0.00,,CLR,0.00,VWS V14.01,2013-10-10 05:48:00,
2013-10-10 01:50:00,67.6,65.2,29.97,NNE,26,3.0,6.0,92,0.00,,CLR,0.00,VWS V14.01,2013-10-10 05:50:00,
2013-10-10 01:51:00,67.6,65.2,29.97,NNE,25,3.0,3.0,92,0.00,,CLR,0.00,VWS V14.01,2013-10-10 05:51:00,
2013-10-10 01:52:00,67.6,65.2,29.97,NE,42,1.0,4.0,92,0.00,,CLR,0.00,VWS V14.01,2013-10-10 05:52:00,
2013-10-10 01:53:00,67.5,65.1,29.97,NNE,16,5.0,5.0,92,0.00,,CLR,0.00,VWS V14.01,2013-10-10 05:53:00,
2013-10-10 01:55:00,67.5,65.1,29.97,NNE,20,2.0,6.0,92,0.00,,CLR,0.00,VWS V14.01,2013-10-10 05:55:00,
2013-10-10 01:56:00,67.5,65.1,29.97,NNE,16,3.0,3.0,92,0.00,,CLR,0.00,VWS V14.01,2013-10-10 05:56:00,
2013-10-10 01:57:00,67.5,65.1,29.97,NNE,16,3.0,4.0,92,0.00,,CLR,0.00,VWS V14.01,2013-10-10 05:57:00,
2013-10-10 01:58:00,67.4,65.0,29.97,NNW,343,2.0,4.0,92,0.00,,CLR,0.00,VWS V14.01,2013-10-10 05:58:00,
2013-10-10 02:00:00,67.4,65.0,29.97,NNE,16,1.0,4.0,92,0.00,,CLR,0.00,VWS V14.01,2013-10-10 06:00:00,
2013-10-10 02:01:00,67.4,65.0,29.97,NNE,25,1.0,1.0,92,0.00,,CLR,0.00,VWS V14.01,2013-10-10 06:01:00,
2013-10-10 02:02:00,67.4,65.0,29.97,NE,53,1.0,5.0,92,0.00,,CLR,0.00,VWS V14.01,2013-10-10 06:02:00,
2013-10-10 02:03:00,67.4,65.0,29.97,NNE,12,0.0,5.0,92,0.00,,CLR,0.00,VWS V14.01,2013-10-10 06:03:00,
2013-10-10 02:05:00,67.3,64.9,29.97,NNE,32,3.0,5.0,92,0.00,,CLR,0.00,VWS V14.01,2013-10-10 06:05:00,
2013-10-10 02:06:00,67.3,64.9,29.97,NE,38,1.0,2.0,92,0.00,,CLR,0.00,VWS V14.01,2013-10-10 06:06:00,
2013-10-10 02:07:00,67.3,64.9,29.97,NE,46,4.0,4.0,92,0.00,,CLR,0.00,VWS V14.01,2013-10-10 06:07:00,
2013-10-10 02:08:00,67.3,64.9,29.96,North,3,1.0,4.0,92,0.00,,CLR,0.00,VWS V14.01,2013-10-10 06:08:00,
2013-10-10 02:10:00,67.3,64.9,29.97,NE,40,1.0,4.0,92,0.00,,CLR,0.00,VWS V14.01,2013-10-10 06:10:00,
2013-10-10 02:11:00,67.3,64.9,29.96,NE,40,0.0,0.0,92,0.00,,CLR,0.00,VWS V14.01,2013-10-10 06:11:00,
2013-10-10 02:13:00,67.2,64.8,29.97,NNE,31,1.0,3.0,92,0.00,,CLR,0.00,VWS V14.01,2013-10-10 06:13:00,
2013-10-10 02:14:00,67.3,64.9,29.97,NE,51,2.0,3.0,92,0.00,,CLR,0.00,VWS V14.01,2013-10-10 06:14:00,
2013-10-10 02:15:00,67.2,64.8,29.97,NE,37,1.0,5.0,92,0.00,,CLR,0.00,VWS V14.01,2013-10-10 06:15:00,
2013-10-10 02:16:00,67.2,64.8,29.97,NE,42,3.0,5.0,92,0.00,,CLR,0.00,VWS V14.01,2013-10-10 06:16:00,
2013-10-10 02:18:00,67.2,64.8,29.96,NNE,29,4.0,5.0,92,0.00,,CLR,0.00,VWS V14.01,2013-10-10 06:18:00,
2013-10-10 02:19:00,67.2,64.8,29.96,ENE,58,2.0,5.0,92,0.00,,CLR,0.00,VWS V14.01,2013-10-10 06:19:00,
2013-10-10 02:20:00,67.2,65.1,29.96,NE,51,4.0,5.0,93,0.00,,CLR,0.00,VWS V14.01,2013-10-10 06:20:00,
2013-10-10 02:22:00,67.2,65.1,29.96,NE,47,5.0,5.0,93,0.00,,CLR,0.00,VWS V14.01,2013-10-10 06:22:00,
2013-10-10 02:23:00,67.2,65.1,29.96,ENE,77,2.0,5.0,93,0.00,,CLR,0.00,VWS V14.01,2013-10-10 06:23:00,
2013-10-10 02:24:00,67.2,65.1,29.96,NNE,26,2.0,5.0,93,0.00,,CLR,0.00,VWS V14.01,2013-10-10 06:24:00,
2013-10-10 02:25:00,67.2,65.1,29.96,NE,46,3.0,5.0,93,0.00,,BKN048,0.00,VWS V14.01,2013-10-10 06:25:00,
2013-10-10 02:26:00,67.2,65.1,29.96,NE,36,3.0,5.0,93,0.00,,CLR,0.00,VWS V14.01,2013-10-10 06:26:00,
2013-10-10 02:27:00,67.2,65.1,29.96,NE,49,3.0,3.0,93,0.00,,CLR,0.00,VWS V14.01,2013-10-10 06:27:00,
2013-10-10 02:29:00,67.2,65.1,29.96,ENE,65,3.0,4.0,93,0.00,,CLR,0.00,VWS V14.01,2013-10-10 06:29:00,
2013-10-10 02:30:00,67.2,65.1,29.96,ENE,66,1.0,4.0,93,0.00,,BKN048,0.00,VWS V14.01,2013-10-10 06:30:00,
2013-10-10 02:31:00,67.2,65.1,29.96,ENE,67,0.0,1.0,93,0.00,,CLR,0.00,VWS V14.01,2013-10-10 06:31:00,
2013-10-10 02:32:00,67.1,65.0,29.96,NNE,29,4.0,4.0,93,0.00,,CLR,0.00,VWS V14.01,2013-10-10 06:32:00,
2013-10-10 02:34:00,67.1,65.0,29.96,ENE,75,2.0,5.0,93,0.00,,CLR,0.00,VWS V14.01,2013-10-10 06:34:00,
2013-10-10 02:35:00,67.1,65.0,29.96,NE,55,3.0,5.0,93,0.00,,BKN048,0.00,VWS V14.01,2013-10-10 06:35:00,
2013-10-10 02:36:00,67.1,65.0,29.96,ENE,65,2.0,3.0,93,0.00,,CLR,0.00,VWS V14.01,2013-10-10 06:36:00,
2013-10-10 02:37:00,67.1,65.0,29.96,ENE,68,2.0,3.0,93,0.00,,CLR,0.00,VWS V14.01,2013-10-10 06:37:00,
2013-10-10 02:39:00,67.1,65.0,29.96,NE,48,1.0,5.0,93,0.00,,CLR,0.00,VWS V14.01,2013-10-10 06:39:00,
2013-10-10 02:40:00,67.1,65.0,29.96,NE,48,4.0,5.0,93,0.00,,CLR,0.00,VWS V14.01,2013-10-10 06:40:00,
2013-10-10 02:41:00,67.1,65.0,29.96,NE,46,3.0,5.0,93,0.00,,CLR,0.00,VWS V14.01,2013-10-10 06:41:00,
2013-10-10 02:42:00,67.1,65.0,29.96,NNE,18,4.0,5.0,93,0.00,,CLR,0.00,VWS V14.01,2013-10-10 06:42:00,
2013-10-10 02:44:00,67.1,65.0,29.96,NE,40,0.0,5.0,93,0.00,,CLR,0.00,VWS V14.01,2013-10-10 06:44:00,
2013-10-10 02:45:00,67.1,65.0,29.96,ENE,58,1.0,5.0,93,0.00,,CLR,0.00,VWS V14.01,2013-10-10 06:45:00,
2013-10-10 02:46:00,67.1,65.0,29.96,NE,34,3.0,4.0,93,0.00,,CLR,0.00,VWS V14.01,2013-10-10 06:46:00,
2013-10-10 02:47:00,67.1,65.0,29.96,NNE,29,3.0,5.0,93,0.00,,CLR,0.00,VWS V14.01,2013-10-10 06:47:00,
2013-10-10 02:49:00,67.1,65.0,29.96,ENE,65,1.0,5.0,93,0.00,,CLR,0.00,VWS V14.01,2013-10-10 06:49:00,
2013-10-10 02:50:00,67.1,65.0,29.96,ENE,70,1.0,5.0,93,0.00,,CLR,0.00,VWS V14.01,2013-10-10 06:50:00,
2013-10-10 02:51:00,67.1,65.0,29.96,ENE,65,0.0,3.0,93,0.00,,CLR,0.00,VWS V14.01,2013-10-10 06:51:00,
2013-10-10 02:53:00,67.1,65.0,29.96,NE,44,3.0,4.0,93,0.00,,CLR,0.00,VWS V14.01,2013-10-10 06:53:00,
2013-10-10 02:54:00,67.1,65.0,29.96,ENE,72,2.0,5.0,93,0.00,,CLR,0.00,VWS V14.01,2013-10-10 06:54:00,
2013-10-10 02:55:00,67.1,65.0,29.96,NE,52,1.0,5.0,93,0.00,,CLR,0.00,VWS V14.01,2013-10-10 06:55:00,
2013-10-10 02:57:00,67.1,65.0,29.96,ENE,58,5.0,5.0,93,0.00,,CLR,0.00,VWS V14.01,2013-10-10 06:57:00,
2013-10-10 02:58:00,67.1,65.0,29.96,NE,49,3.0,6.0,93,0.00,,CLR,0.00,VWS V14.01,2013-10-10 06:58:00,
2013-10-10 02:59:00,67.1,65.0,29.96,ENE,72,4.0,6.0,93,0.00,,CLR,0.00,VWS V14.01,2013-10-10 06:59:00,
2013-10-10 03:00:00,67.1,65.0,29.96,NE,37,4.0,6.0,93,0.00,,CLR,0.00,VWS V14.01,2013-10-10 07:00:00,
2013-10-10 03:02:00,67.0,64.9,29.96,NE,46,3.0,3.0,93,0.00,,CLR,0.00,VWS V14.01,2013-10-10 07:02:00,
2013-10-10 03:03:00,67.0,64.9,29.96,East,82,2.0,3.0,93,0.00,,CLR,0.00,VWS V14.01,2013-10-10 07:03:00,
2013-10-10 03:04:00,67.0,64.9,29.96,NE,49,4.0,5.0,93,0.00,,CLR,0.00,VWS V14.01,2013-10-10 07:04:00,
2013-10-10 03:05:00,67.0,64.9,29.96,ENE,60,1.0,5.0,93,0.00,,CLR,0.00,VWS V14.01,2013-10-10 07:05:00,
2013-10-10 03:07:00,67.0,64.9,29.96,ENE,58,2.0,5.0,93,0.00,,CLR,0.00,VWS V14.01,2013-10-10 07:07:00,
2013-10-10 03:09:00,67.0,64.9,29.96,NE,45,2.0,5.0,93,0.00,,CLR,0.00,VWS V14.01,2013-10-10 07:09:00,
2013-10-10 03:10:00,67.0,64.9,29.96,ENE,73,1.0,5.0,93,0.00,,CLR,0.00,VWS V14.01,2013-10-10 07:10:00,
2013-10-10 03:12:00,66.9,64.8,29.96,ENE,66,2.0,4.0,93,0.00,,CLR,0.00,VWS V14.01,2013-10-10 07:12:00,
2013-10-10 03:14:00,66.9,64.8,29.96,NNE,25,3.0,4.0,93,0.00,,CLR,0.00,VWS V14.01,2013-10-10 07:14:00,
2013-10-10 03:15:00,66.9,64.8,29.96,NNE,25,3.0,4.0,93,0.00,,CLR,0.00,VWS V14.01,2013-10-10 07:15:00,
2013-10-10 03:17:00,66.9,64.8,29.96,NNE,22,4.0,4.0,93,0.00,,CLR,0.00,VWS V14.01,2013-10-10 07:17:00,
2013-10-10 03:19:00,66.9,64.8,29.96,ENE,68,2.0,4.0,93,0.00,,CLR,0.00,VWS V14.01,2013-10-10 07:19:00,
2013-10-10 03:20:00,66.9,64.8,29.96,NE,36,2.0,4.0,93,0.00,,CLR,0.00,VWS V14.01,2013-10-10 07:20:00,
2013-10-10 03:21:00,66.9,64.8,29.96,NE,48,2.0,2.0,93,0.00,,CLR,0.00,VWS V14.01,2013-10-10 07:21:00,
2013-10-10 03:22:00,66.8,64.7,29.96,NE,42,1.0,3.0,93,0.00,,CLR,0.00,VWS V14.01,2013-10-10 07:22:00,
2013-10-10 03:25:00,66.8,64.7,29.96,NE,42,2.0,3.0,93,0.00,,CLR,0.00,VWS V14.01,2013-10-10 07:25:00,
2013-10-10 03:26:00,66.8,64.7,29.96,NE,39,3.0,3.0,93,0.00,,CLR,0.00,VWS V14.01,2013-10-10 07:26:00,
2013-10-10 03:27:00,66.8,64.7,29.96,NNE,13,1.0,4.0,93,0.00,,CLR,0.00,VWS V14.01,2013-10-10 07:27:00,
2013-10-10 03:30:00,66.8,64.7,29.96,NNE,23,4.0,4.0,93,0.00,,CLR,0.00,VWS V14.01,2013-10-10 07:30:00,
2013-10-10 03:31:00,66.8,64.7,29.96,NNE,25,4.0,4.0,93,0.00,,CLR,0.00,VWS V14.01,2013-10-10 07:31:00,
2013-10-10 03:32:00,66.8,64.7,29.96,NE,47,2.0,5.0,93,0.00,,CLR,0.00,VWS V14.01,2013-10-10 07:32:00,
2013-10-10 03:33:00,66.8,64.7,29.96,NNE,32,6.0,6.0,93,0.00,,CLR,0.00,VWS V14.01,2013-10-10 07:33:00,
2013-10-10 03:35:00,66.8,64.7,29.96,NNE,23,6.0,7.0,93,0.00,,CLR,0.00,VWS V14.01,2013-10-10 07:35:00,
2013-10-10 03:36:00,66.8,64.7,29.96,NE,39,4.0,5.0,93,0.00,,CLR,0.00,VWS V14.01,2013-10-10 07:36:00,
2013-10-10 03:37:00,66.8,64.7,29.96,NE,51,3.0,5.0,93,0.00,,CLR,0.00,VWS V14.01,2013-10-10 07:37:00,
2013-10-10 03:38:00,66.8,64.7,29.95,NE,51,1.0,5.0,93,0.00,,CLR,0.00,VWS V14.01,2013-10-10 07:38:00,
2013-10-10 03:40:00,66.8,64.7,29.96,ENE,62,1.0,5.0,93,0.00,,CLR,0.00,VWS V14.01,2013-10-10 07:40:00,
2013-10-10 03:41:00,66.7,64.6,29.95,ENE,60,2.0,2.0,93,0.00,,CLR,0.00,VWS V14.01,2013-10-10 07:41:00,
2013-10-10 03:43:00,66.8,64.7,29.95,North,9,1.0,6.0,93,0.00,,CLR,0.00,VWS V14.01,2013-10-10 07:43:00,
2013-10-10 03:45:00,66.8,64.7,29.95,ENE,64,2.0,6.0,93,0.00,,CLR,0.00,VWS V14.01,2013-10-10 07:45:00,
2013-10-10 03:46:00,66.8,64.7,29.95,ENE,63,2.0,2.0,93,0.00,,CLR,0.00,VWS V14.01,2013-10-10 07:46:00,
2013-10-10 03:48:00,66.8,64.7,29.95,NE,36,2.0,4.0,93,0.00,,CLR,0.00,VWS V14.01,2013-10-10 07:48:00,
2013-10-10 03:50:00,66.8,64.7,29.95,NE,36,4.0,5.0,93,0.00,,CLR,0.00,VWS V14.01,2013-10-10 07:50:00,
2013-10-10 03:51:00,66.8,64.7,29.95,NNE,18,1.0,2.0,93,0.00,,CLR,0.00,VWS V14.01,2013-10-10 07:51:00,
2013-10-10 03:53:00,66.8,64.7,29.95,North,8,4.0,4.0,93,0.00,,CLR,0.00,VWS V14.01,2013-10-10 07:53:00,
2013-10-10 03:55:00,66.8,64.7,29.95,NNE,13,4.0,5.0,93,0.00,,CLR,0.00,VWS V14.01,2013-10-10 07:55:00,
2013-10-10 03:56:00,66.7,64.6,29.95,NNE,33,1.0,1.0,93,0.00,,CLR,0.00,VWS V14.01,2013-10-10 07:56:00,
2013-10-10 03:57:00,66.7,64.6,29.95,NE,42,1.0,2.0,93,0.00,,CLR,0.00,VWS V14.01,2013-10-10 07:57:00,
2013-10-10 03:58:00,66.7,64.6,29.95,NNE,30,2.0,3.0,93,0.00,,CLR,0.00,VWS V14.01,2013-10-10 07:58:00,
2013-10-10 04:00:00,66.7,64.6,29.95,NNE,33,2.0,4.0,93,0.00,,CLR,0.00,VWS V14.01,2013-10-10 08:00:00,
2013-10-10 04:01:00,66.7,64.6,29.95,NE,50,2.0,2.0,93,0.00,,CLR,0.00,VWS V14.01,2013-10-10 08:01:00,
2013-10-10 04:03:00,66.7,64.6,29.95,NE,41,4.0,4.0,93,0.00,,CLR,0.00,VWS V14.01,2013-10-10 08:03:00,
2013-10-10 04:05:00,66.7,64.6,29.95,NE,56,3.0,5.0,93,0.00,,BKN048,0.00,VWS V14.01,2013-10-10 08:05:00,
2013-10-10 04:06:00,66.7,64.6,29.95,ENE,63,3.0,5.0,93,0.00,,CLR,0.00,VWS V14.01,2013-10-10 08:06:00,
2013-10-10 04:07:00,66.7,64.6,29.95,NE,41,3.0,6.0,93,0.00,,CLR,0.00,VWS V14.01,2013-10-10 08:07:00,
2013-10-10 04:08:00,66.7,64.6,29.95,NNE,18,2.0,6.0,93,0.00,,CLR,0.00,VWS V14.01,2013-10-10 08:08:00,
2013-10-10 04:09:00,66.7,64.6,29.95,NNE,19,1.0,6.0,93,0.00,,CLR,0.00,VWS V14.01,2013-10-10 08:09:00,
2013-10-10 04:10:00,66.7,64.6,29.95,NE,42,2.0,6.0,93,0.00,,BKN048,0.00,VWS V14.01,2013-10-10 08:10:00,
2013-10-10 04:11:00,66.7,64.6,29.95,NE,43,2.0,6.0,93,0.00,,CLR,0.00,VWS V14.01,2013-10-10 08:11:00,
2013-10-10 04:12:00,66.7,64.6,29.95,NE,53,3.0,4.0,93,0.00,,CLR,0.00,VWS V14.01,2013-10-10 08:12:00,
2013-10-10 04:13:00,66.7,64.6,29.95,ENE,72,2.0,6.0,93,0.00,,CLR,0.00,VWS V14.01,2013-10-10 08:13:00,
2013-10-10 04:14:00,66.7,64.6,29.95,NE,41,1.0,6.0,93,0.00,,CLR,0.00,VWS V14.01,2013-10-10 08:14:00,
2013-10-10 04:15:00,66.7,64.6,29.95,NE,55,3.0,6.0,93,0.00,,BKN048,0.00,VWS V14.01,2013-10-10 08:15:00,
2013-10-10 04:16:00,66.7,64.6,29.95,NE,55,3.0,6.0,93,0.00,,CLR,0.00,VWS V14.01,2013-10-10 08:16:00,
2013-10-10 04:17:00,66.7,64.6,29.95,NE,40,3.0,4.0,93,0.00,,CLR,0.00,VWS V14.01,2013-10-10 08:17:00,
2013-10-10 04:18:00,66.7,64.6,29.95,NE,37,5.0,5.0,93,0.00,,CLR,0.00,VWS V14.01,2013-10-10 08:18:00,
2013-10-10 04:19:00,66.7,64.6,29.95,NNE,32,1.0,5.0,93,0.00,,CLR,0.00,VWS V14.01,2013-10-10 08:19:00,
2013-10-10 04:20:00,66.7,64.6,29.95,NE,50,3.0,6.0,93,0.00,,BKN048,0.00,VWS V14.01,2013-10-10 08:20:00,
2013-10-10 04:21:00,66.7,64.6,29.95,NE,50,3.0,6.0,93,0.00,,CLR,0.00,VWS V14.01,2013-10-10 08:21:00,
2013-10-10 04:22:00,66.7,64.6,29.95,NE,38,2.0,5.0,93,0.00,,CLR,0.00,VWS V14.01,2013-10-10 08:22:00,
2013-10-10 04:23:00,66.7,64.6,29.95,NE,36,0.0,5.0,93,0.00,,CLR,0.00,VWS V14.01,2013-10-10 08:23:00,
2013-10-10 04:24:00,66.6,64.5,29.95,NE,36,3.0,5.0,93,0.00,,CLR,0.00,VWS V14.01,2013-10-10 08:24:00,
2013-10-10 04:25:00,66.6,64.5,29.95,NNE,29,4.0,5.0,93,0.00,,BKN048,0.00,VWS V14.01,2013-10-10 08:25:00,
2013-10-10 04:26:00,66.6,64.5,29.95,NNE,29,4.0,5.0,93,0.00,,CLR,0.00,VWS V14.01,2013-10-10 08:26:00,
2013-10-10 04:27:00,66.6,64.5,29.95,NNE,30,3.0,5.0,93,0.00,,CLR,0.00,VWS V14.01,2013-10-10 08:27:00,
2013-10-10 04:28:00,66.6,64.5,29.95,NNE,32,4.0,5.0,93,0.00,,CLR,0.00,VWS V14.01,2013-10-10 08:28:00,
2013-10-10 04:29:00,66.6,64.5,29.95,ENE,59,2.0,5.0,93,0.00,,CLR,0.00,VWS V14.01,2013-10-10 08:29:00,
2013-10-10 04:30:00,66.6,64.8,29.95,NNE,31,1.0,5.0,94,0.00,,BKN048,0.00,VWS V14.01,2013-10-10 08:30:00,
2013-10-10 04:31:00,66.6,64.8,29.95,NNE,31,1.0,5.0,94,0.00,,CLR,0.00,VWS V14.01,2013-10-10 08:31:00,
2013-10-10 04:32:00,66.6,64.5,29.95,NE,44,4.0,5.0,93,0.00,,CLR,0.00,VWS V14.01,2013-10-10 08:32:00,
2013-10-10 04:33:00,66.6,64.8,29.95,NE,44,4.0,5.0,94,0.00,,CLR,0.00,VWS V14.01,2013-10-10 08:33:00,
2013-10-10 04:34:00,66.6,64.5,29.95,NE,40,1.0,5.0,93,0.00,,CLR,0.00,VWS V14.01,2013-10-10 08:34:00,
2013-10-10 04:35:00,66.6,64.5,29.95,ENE,77,2.0,7.0,93,0.00,,BKN048,0.00,VWS V14.01,2013-10-10 08:35:00,
2013-10-10 04:36:00,66.6,64.5,29.95,ENE,77,2.0,7.0,93,0.00,,CLR,0.00,VWS V14.01,2013-10-10 08:36:00,
2013-10-10 04:37:00,66.5,64.7,29.95,NNE,31,2.0,4.0,94,0.00,,CLR,0.00,VWS V14.01,2013-10-10 08:37:00,
2013-10-10 04:38:00,66.5,64.7,29.95,NE,47,2.0,4.0,94,0.00,,CLR,0.00,VWS V14.01,2013-10-10 08:38:00,
2013-10-10 04:39:00,66.5,64.7,29.95,NE,34,4.0,5.0,94,0.00,,CLR,0.00,VWS V14.01,2013-10-10 08:39:00,
2013-10-10 04:40:00,66.5,64.7,29.95,North,360,1.0,5.0,94,0.00,,CLR,0.00,VWS V14.01,2013-10-10 08:40:00,
2013-10-10 04:41:00,66.5,64.7,29.95,NE,51,2.0,2.0,94,0.00,,CLR,0.00,VWS V14.01,2013-10-10 08:41:00,
2013-10-10 04:42:00,66.5,64.7,29.95,NE,44,2.0,4.0,94,0.00,,CLR,0.00,VWS V14.01,2013-10-10 08:42:00,
2013-10-10 04:43:00,66.4,64.6,29.95,NE,51,1.0,4.0,94,0.00,,CLR,0.00,VWS V14.01,2013-10-10 08:43:00,
2013-10-10 04:44:00,66.5,64.7,29.95,NE,51,0.0,4.0,94,0.00,,CLR,0.00,VWS V14.01,2013-10-10 08:44:00,
2013-10-10 04:45:00,66.4,64.6,29.95,NE,46,1.0,4.0,94,0.00,,CLR,0.00,VWS V14.01,2013-10-10 08:45:00,
2013-10-10 04:46:00,66.4,64.6,29.95,NNE,33,2.0,3.0,94,0.00,,CLR,0.00,VWS V14.01,2013-10-10 08:46:00,
2013-10-10 04:48:00,66.4,64.6,29.95,NE,56,0.0,4.0,94,0.00,,CLR,0.00,VWS V14.01,2013-10-10 08:48:00,
2013-10-10 04:49:00,66.4,64.6,29.95,ENE,59,1.0,4.0,94,0.00,,CLR,0.00,VWS V14.01,2013-10-10 08:49:00,
2013-10-10 04:50:00,66.4,64.6,29.95,NE,49,1.0,4.0,94,0.00,,CLR,0.00,VWS V14.01,2013-10-10 08:50:00,
2013-10-10 04:51:00,66.4,64.6,29.95,NNE,13,2.0,3.0,94,0.00,,CLR,0.00,VWS V14.01,2013-10-10 08:51:00,
2013-10-10 04:53:00,66.4,64.6,29.95,NE,56,3.0,3.0,94,0.00,,CLR,0.00,VWS V14.01,2013-10-10 08:53:00,
2013-10-10 04:54:00,66.3,64.5,29.95,NE,55,0.0,3.0,94,0.00,,CLR,0.00,VWS V14.01,2013-10-10 08:54:00,
2013-10-10 04:55:00,66.4,64.6,29.95,NE,56,0.0,3.0,94,0.00,,CLR,0.00,VWS V14.01,2013-10-10 08:55:00,
2013-10-10 04:56:00,66.3,64.5,29.95,NNE,19,1.0,1.0,94,0.00,,CLR,0.00,VWS V14.01,2013-10-10 08:56:00,
2013-10-10 04:58:00,66.3,64.5,29.95,NE,49,1.0,3.0,94,0.00,,CLR,0.00,VWS V14.01,2013-10-10 08:58:00,
2013-10-10 04:59:00,66.3,64.5,29.95,NNE,16,3.0,3.0,94,0.00,,CLR,0.00,VWS V14.01,2013-10-10 08:59:00,
2013-10-10 05:00:00,66.3,64.5,29.95,NE,40,1.0,3.0,94,0.00,,CLR,0.00,VWS V14.01,2013-10-10 09:00:00,
2013-10-10 05:01:00,66.3,64.5,29.95,NNE,33,2.0,2.0,94,0.00,,CLR,0.00,VWS V14.01,2013-10-10 09:01:00,
2013-10-10 05:03:00,66.2,64.4,29.95,NNE,18,1.0,3.0,94,0.00,,CLR,0.00,VWS V14.01,2013-10-10 09:03:00,
2013-10-10 05:04:00,66.2,64.4,29.95,NNE,23,1.0,3.0,94,0.00,,CLR,0.00,VWS V14.01,2013-10-10 09:04:00,
2013-10-10 05:05:00,66.2,64.4,29.95,NE,41,2.0,3.0,94,0.00,,CLR,0.00,VWS V14.01,2013-10-10 09:05:00,
2013-10-10 05:06:00,66.2,64.4,29.95,North,9,3.0,3.0,94,0.00,,CLR,0.00,VWS V14.01,2013-10-10 09:06:00,
2013-10-10 05:08:00,66.1,64.3,29.95,NE,40,0.0,3.0,94,0.00,,CLR,0.00,VWS V14.01,2013-10-10 09:08:00,
2013-10-10 05:10:00,66.1,64.3,29.95,NNE,16,1.0,4.0,94,0.00,,CLR,0.00,VWS V14.01,2013-10-10 09:10:00,
2013-10-10 05:11:00,66.1,64.3,29.95,NNE,16,0.0,4.0,94,0.00,,CLR,0.00,VWS V14.01,2013-10-10 09:11:00,
2013-10-10 05:13:00,66.0,64.2,29.95,North,11,1.0,3.0,94,0.00,,CLR,0.00,VWS V14.01,2013-10-10 09:13:00,
2013-10-10 05:15:00,66.0,64.2,29.95,NNE,32,4.0,4.0,94,0.00,,CLR,0.00,VWS V14.01,2013-10-10 09:15:00,
2013-10-10 05:16:00,66.0,64.2,29.95,NNW,330,0.0,0.0,94,0.00,,CLR,0.00,VWS V14.01,2013-10-10 09:16:00,
2013-10-10 05:18:00,66.0,64.2,29.95,NNW,347,1.0,3.0,94,0.00,,CLR,0.00,VWS V14.01,2013-10-10 09:18:00,
2013-10-10 05:20:00,66.0,64.2,29.95,NNE,29,1.0,3.0,94,0.00,,CLR,0.00,VWS V14.01,2013-10-10 09:20:00,
2013-10-10 05:21:00,66.0,64.2,29.95,NE,51,3.0,3.0,94,0.00,,CLR,0.00,VWS V14.01,2013-10-10 09:21:00,
2013-10-10 05:23:00,66.0,64.2,29.95,NNE,25,2.0,4.0,94,0.00,,CLR,0.00,VWS V14.01,2013-10-10 09:23:00,
2013-10-10 05:25:00,65.9,64.1,29.95,NE,42,3.0,4.0,94,0.00,,CLR,0.00,VWS V14.01,2013-10-10 09:25:00,
2013-10-10 05:26:00,65.9,64.1,29.95,NNE,29,3.0,4.0,94,0.00,,CLR,0.00,VWS V14.01,2013-10-10 09:26:00,
2013-10-10 05:29:00,65.9,64.1,29.95,NE,41,2.0,3.0,94,0.00,,CLR,0.00,VWS V14.01,2013-10-10 09:29:00,
2013-10-10 05:30:00,65.9,64.1,29.95,NNE,32,1.0,3.0,94,0.00,,BKN048,0.00,VWS V14.01,2013-10-10 09:30:00,
2013-10-10 05:31:00,65.9,64.1,29.95,NNE,12,2.0,2.0,94,0.00,,CLR,0.00,VWS V14.01,2013-10-10 09:31:00,
2013-10-10 05:32:00,65.9,64.1,29.95,NE,39,3.0,3.0,94,0.00,,CLR,0.00,VWS V14.01,2013-10-10 09:32:00,
2013-10-10 05:34:00,65.9,64.1,29.95,NE,49,1.0,3.0,94,0.00,,CLR,0.00,VWS V14.01,2013-10-10 09:34:00,
2013-10-10 05:35:00,65.9,64.1,29.96,ENE,57,2.0,3.0,94,0.00,,BKN048,0.00,VWS V14.01,2013-10-10 09:35:00,
2013-10-10 05:36:00,65.9,64.1,29.96,ENE,57,2.0,2.0,94,0.00,,CLR,0.00,VWS V14.01,2013-10-10 09:36:00,
2013-10-10 05:37:00,65.9,64.1,29.96,NE,56,0.0,2.0,94,0.00,,CLR,0.00,VWS V14.01,2013-10-10 09:37:00,
2013-10-10 05:39:00,65.9,64.1,29.96,ENE,72,0.0,2.0,94,0.00,,CLR,0.00,VWS V14.01,2013-10-10 09:39:00,
2013-10-10 05:40:00,65.8,64.0,29.96,NE,56,1.0,3.0,94,0.00,,BKN048,0.00,VWS V14.01,2013-10-10 09:40:00,
2013-10-10 05:41:00,65.8,64.0,29.96,NE,55,1.0,1.0,94,0.00,,CLR,0.00,VWS V14.01,2013-10-10 09:41:00,
2013-10-10 05:42:00,65.8,64.0,29.96,NE,48,1.0,3.0,94,0.00,,CLR,0.00,VWS V14.01,2013-10-10 09:42:00,
2013-10-10 05:44:00,65.9,64.1,29.96,NE,49,0.0,3.0,94,0.00,,CLR,0.00,VWS V14.01,2013-10-10 09:44:00,
2013-10-10 05:45:00,65.9,64.1,29.96,NNE,27,1.0,3.0,94,0.00,,BKN048,0.00,VWS V14.01,2013-10-10 09:45:00,
2013-10-10 05:46:00,65.9,64.1,29.96,NNE,27,1.0,1.0,94,0.00,,CLR,0.00,VWS V14.01,2013-10-10 09:46:00,
2013-10-10 05:47:00,65.9,64.1,29.96,NNE,27,0.0,1.0,94,0.00,,CLR,0.00,VWS V14.01,2013-10-10 09:47:00,
2013-10-10 05:49:00,65.9,64.1,29.96,NE,34,0.0,3.0,94,0.00,,CLR,0.00,VWS V14.01,2013-10-10 09:49:00,
2013-10-10 05:50:00,65.9,64.1,29.96,NNE,26,3.0,3.0,94,0.00,,BKN048,0.00,VWS V14.01,2013-10-10 09:50:00,
2013-10-10 05:51:00,65.9,64.1,29.96,NE,40,3.0,4.0,94,0.00,,CLR,0.00,VWS V14.01,2013-10-10 09:51:00,
2013-10-10 05:52:00,65.9,64.1,29.96,North,7,1.0,4.0,94,0.00,,CLR,0.00,VWS V14.01,2013-10-10 09:52:00,
2013-10-10 05:54:00,66.0,64.2,29.96,NNE,25,2.0,5.0,94,0.00,,CLR,0.00,VWS V14.01,2013-10-10 09:54:00,
2013-10-10 05:55:00,66.0,64.2,29.96,NNE,23,1.0,5.0,94,0.00,,BKN048,0.00,VWS V14.01,2013-10-10 09:55:00,
2013-10-10 05:56:00,66.0,64.2,29.96,NE,34,3.0,3.0,94,0.00,,CLR,0.00,VWS V14.01,2013-10-10 09:56:00,
2013-10-10 05:57:00,66.0,64.2,29.96,NNE,29,1.0,3.0,94,0.00,,CLR,0.00,VWS V14.01,2013-10-10 09:57:00,
2013-10-10 05:58:00,66.0,64.2,29.96,North,8,1.0,3.0,94,0.00,,CLR,0.00,VWS V14.01,2013-10-10 09:58:00,
2013-10-10 06:00:00,66.1,64.3,29.96,NE,42,1.0,4.0,94,0.00,,CLR,0.00,VWS V14.01,2013-10-10 10:00:00,
2013-10-10 06:01:00,66.1,64.3,29.96,NNE,19,1.0,3.0,94,0.00,,CLR,0.00,VWS V14.01,2013-10-10 10:01:00,
2013-10-10 06:02:00,66.1,64.3,29.96,NNE,12,1.0,3.0,94,0.00,,CLR,0.00,VWS V14.01,2013-10-10 10:02:00,
2013-10-10 06:03:00,66.1,64.3,29.96,NE,41,5.0,6.0,94,0.00,,CLR,0.00,VWS V14.01,2013-10-10 10:03:00,
2013-10-10 06:05:00,66.2,64.4,29.96,NNE,30,2.0,6.0,94,0.00,,CLR,0.00,VWS V14.01,2013-10-10 10:05:00,
2013-10-10 06:06:00,66.2,64.4,29.96,NNE,16,1.0,3.0,94,0.00,,CLR,0.00,VWS V14.01,2013-10-10 10:06:00,
2013-10-10 06:07:00,66.2,64.4,29.96,NNE,25,2.0,3.0,94,0.00,,CLR,0.00,VWS V14.01,2013-10-10 10:07:00,
2013-10-10 06:09:00,66.2,64.4,29.96,NNE,23,3.0,3.0,94,0.00,,CLR,0.00,VWS V14.01,2013-10-10 10:09:00,
2013-10-10 06:10:00,66.3,64.5,29.96,NNE,14,2.0,3.0,94,0.00,,BKN048,0.00,VWS V14.01,2013-10-10 10:10:00,
2013-10-10 06:11:00,66.3,64.5,29.96,NNE,14,2.0,3.0,94,0.00,,CLR,0.00,VWS V14.01,2013-10-10 10:11:00,
2013-10-10 06:12:00,66.3,64.5,29.96,NNE,23,0.0,2.0,94,0.00,,CLR,0.00,VWS V14.01,2013-10-10 10:12:00,
2013-10-10 06:14:00,66.3,64.5,29.96,NNE,31,3.0,4.0,94,0.00,,CLR,0.00,VWS V14.01,2013-10-10 10:14:00,
2013-10-10 06:15:00,66.4,64.6,29.96,NNE,30,1.0,4.0,94,0.00,,BKN048,0.00,VWS V14.01,2013-10-10 10:15:00,
2013-10-10 06:16:00,66.4,64.6,29.96,NNE,30,1.0,1.0,94,0.00,,CLR,0.00,VWS V14.01,2013-10-10 10:16:00,
2013-10-10 06:17:00,66.4,64.6,29.96,NE,49,4.0,4.0,94,0.00,,CLR,0.00,VWS V14.01,2013-10-10 10:17:00,
2013-10-10 06:18:00,66.4,64.6,29.96,NE,51,3.0,5.0,94,0.00,,CLR,0.00,VWS V14.01,2013-10-10 10:18:00,
2013-10-10 06:19:00,66.4,64.6,29.96,NNE,29,1.0,6.0,94,0.00,,CLR,0.00,VWS V14.01,2013-10-10 10:19:00,
2013-10-10 06:20:00,66.5,64.7,29.96,NE,53,3.0,6.0,94,0.00,,BKN048,0.00,VWS V14.01,2013-10-10 10:20:00,
2013-10-10 06:21:00,66.4,64.6,29.96,NE,39,2.0,3.0,94,0.00,,CLR,0.00,VWS V14.01,2013-10-10 10:21:00,
2013-10-10 06:22:00,66.5,64.7,29.96,NE,39,2.0,5.0,94,0.00,,CLR,0.00,VWS V14.01,2013-10-10 10:22:00,
2013-10-10 06:23:00,66.5,64.7,29.97,NNE,25,3.0,5.0,94,0.00,,CLR,0.00,VWS V14.01,2013-10-10 10:23:00,
2013-10-10 06:25:00,66.5,64.7,29.96,NE,39,2.0,5.0,94,0.00,,CLR,0.00,VWS V14.01,2013-10-10 10:25:00,
2013-10-10 06:26:00,66.5,64.7,29.97,NE,36,1.0,4.0,94,0.00,,CLR,0.00,VWS V14.01,2013-10-10 10:26:00,
2013-10-10 06:27:00,66.6,64.8,29.97,NE,47,3.0,4.0,94,0.00,,CLR,0.00,VWS V14.01,2013-10-10 10:27:00,
2013-10-10 06:28:00,66.6,64.8,29.96,NE,54,2.0,4.0,94,0.00,,CLR,0.00,VWS V14.01,2013-10-10 10:28:00,
2013-10-10 06:30:00,66.6,64.8,29.96,NNE,29,1.0,4.0,94,0.00,,CLR,0.00,VWS V14.01,2013-10-10 10:30:00,
2013-10-10 06:31:00,66.6,64.8,29.96,North,8,3.0,5.0,94,0.00,,CLR,0.00,VWS V14.01,2013-10-10 10:31:00,
2013-10-10 06:32:00,66.6,64.8,29.96,NNE,32,2.0,5.0,94,0.00,,CLR,0.00,VWS V14.01,2013-10-10 10:32:00,
2013-10-10 06:33:00,66.6,64.8,29.96,NE,49,4.0,5.0,94,0.00,,CLR,0.00,VWS V14.01,2013-10-10 10:33:00,
2013-10-10 06:35:00,66.6,64.8,29.97,NE,53,3.0,5.0,94,0.00,,CLR,0.00,VWS V14.01,2013-10-10 10:35:00,
2013-10-10 06:36:00,66.6,64.8,29.97,NE,46,3.0,4.0,94,0.00,,CLR,0.00,VWS V14.01,2013-10-10 10:36:00,
2013-10-10 06:37:00,66.6,64.8,29.97,NNE,19,4.0,4.0,94,0.00,,CLR,0.00,VWS V14.01,2013-10-10 10:37:00,
2013-10-10 06:38:00,66.6,64.8,29.97,NNE,30,4.0,5.0,94,0.00,,CLR,0.00,VWS V14.01,2013-10-10 10:38:00,
2013-10-10 06:40:00,66.7,64.9,29.97,NNE,29,2.0,5.0,94,0.00,,CLR,0.00,VWS V14.01,2013-10-10 10:40:00,
2013-10-10 06:42:00,66.6,64.8,29.97,NE,56,2.0,5.0,94,0.00,,CLR,0.00,VWS V14.01,2013-10-10 10:42:00,
2013-10-10 06:43:00,66.7,64.9,29.97,NNE,12,2.0,5.0,94,0.00,,CLR,0.00,VWS V14.01,2013-10-10 10:43:00,
2013-10-10 06:45:00,66.7,64.9,29.97,NNE,33,2.0,5.0,94,0.00,,CLR,0.00,VWS V14.01,2013-10-10 10:45:00,
2013-10-10 06:47:00,66.7,64.9,29.97,NNE,20,4.0,5.0,94,0.00,,CLR,0.00,VWS V14.01,2013-10-10 10:47:00,
2013-10-10 06:48:00,66.7,64.9,29.97,NNE,16,1.0,5.0,94,0.00,,CLR,0.00,VWS V14.01,2013-10-10 10:48:00,
2013-10-10 06:49:00,66.7,64.9,29.97,NNE,26,1.0,5.0,94,0.00,,CLR,0.00,VWS V14.01,2013-10-10 10:49:00,
2013-10-10 06:50:00,66.8,65.0,29.97,NNE,31,3.0,5.0,94,0.00,,CLR,0.00,VWS V14.01,2013-10-10 10:50:00,
2013-10-10 06:52:00,66.8,65.0,29.97,NE,50,2.0,7.0,94,0.00,,CLR,0.00,VWS V14.01,2013-10-10 10:52:00,
2013-10-10 06:53:00,66.8,65.0,29.97,NNE,29,3.0,7.0,94,0.00,,CLR,0.00,VWS V14.01,2013-10-10 10:53:00,
2013-10-10 06:54:00,66.8,65.0,29.97,NNE,31,4.0,7.0,94,0.00,,CLR,0.00,VWS V14.01,2013-10-10 10:54:00,
2013-10-10 06:55:00,66.9,65.1,29.97,NNE,27,2.0,7.0,94,0.00,,CLR,0.00,VWS V14.01,2013-10-10 10:55:00,
2013-10-10 06:58:00,66.9,65.1,29.97,NE,42,3.0,7.0,94,0.00,,CLR,0.00,VWS V14.01,2013-10-10 10:58:00,
2013-10-10 06:59:00,66.9,65.1,29.97,NNE,20,2.0,7.0,94,0.00,,CLR,0.00,VWS V14.01,2013-10-10 10:59:00,
2013-10-10 07:00:00,66.9,65.1,29.97,NNE,29,2.0,7.0,94,0.00,,SCT035,0.00,VWS V14.01,2013-10-10 11:00:00,
2013-10-10 07:03:00,67.0,64.9,29.97,NE,38,5.0,6.0,93,0.00,,SCT035,0.00,VWS V14.01,2013-10-10 11:03:00,
2013-10-10 07:04:00,67.0,64.9,29.97,NE,40,1.0,6.0,93,0.00,,SCT035,0.00,VWS V14.01,2013-10-10 11:04:00,
2013-10-10 07:05:00,67.0,64.9,29.97,NE,41,1.0,6.0,93,0.00,,SCT035,0.00,VWS V14.01,2013-10-10 11:05:00,
2013-10-10 07:08:00,67.1,65.0,29.97,NE,46,5.0,5.0,93,0.00,,SCT035,0.00,VWS V14.01,2013-10-10 11:08:00,
2013-10-10 07:09:00,67.1,65.0,29.97,NNE,30,6.0,6.0,93,0.00,,SCT035,0.00,VWS V14.01,2013-10-10 11:09:00,
2013-10-10 07:10:00,67.1,65.0,29.97,NNE,33,4.0,6.0,93,0.00,,SCT035,0.00,VWS V14.01,2013-10-10 11:10:00,
2013-10-10 07:13:00,67.1,65.0,29.97,NE,50,2.0,8.0,93,0.00,,SCT035,0.00,VWS V14.01,2013-10-10 11:13:00,
2013-10-10 07:14:00,67.2,65.1,29.97,NNE,22,4.0,8.0,93,0.00,,SCT035,0.00,VWS V14.01,2013-10-10 11:14:00,
2013-10-10 07:15:00,67.2,65.1,29.97,NE,47,4.0,8.0,93,0.00,,SCT035,0.00,VWS V14.01,2013-10-10 11:15:00,
2013-10-10 07:16:00,67.2,65.1,29.97,NNE,25,2.0,3.0,93,0.00,,SCT035,0.00,VWS V14.01,2013-10-10 11:16:00,
2013-10-10 07:18:00,67.2,65.1,29.97,NNE,29,3.0,4.0,93,0.00,,SCT035,0.00,VWS V14.01,2013-10-10 11:18:00,
2013-10-10 07:19:00,67.2,65.1,29.97,NE,36,4.0,6.0,93,0.00,,SCT035,0.00,VWS V14.01,2013-10-10 11:19:00,
2013-10-10 07:20:00,67.2,65.1,29.97,North,11,2.0,6.0,93,0.00,,SCT035,0.00,VWS V14.01,2013-10-10 11:20:00,
2013-10-10 07:22:00,67.2,65.1,29.97,NNE,28,4.0,6.0,93,0.00,,SCT035,0.00,VWS V14.01,2013-10-10 11:22:00,
2013-10-10 07:23:00,67.2,65.1,29.97,NE,40,5.0,6.0,93,0.00,,SCT035,0.00,VWS V14.01,2013-10-10 11:23:00,
2013-10-10 07:24:00,67.2,65.1,29.97,NNE,18,3.0,6.0,93,0.00,,SCT035,0.00,VWS V14.01,2013-10-10 11:24:00,
2013-10-10 07:25:00,67.2,65.1,29.97,NNE,20,2.0,6.0,93,0.00,,SCT035,0.00,VWS V14.01,2013-10-10 11:25:00,
2013-10-10 07:27:00,67.2,65.1,29.97,ENE,60,1.0,5.0,93,0.00,,SCT035,0.00,VWS V14.01,2013-10-10 11:27:00,
2013-10-10 07:28:00,67.1,65.0,29.97,NNE,28,1.0,5.0,93,0.00,,SCT035,0.00,VWS V14.01,2013-10-10 11:28:00,
2013-10-10 07:29:00,67.1,65.0,29.97,NE,46,1.0,5.0,93,0.00,,SCT035,0.00,VWS V14.01,2013-10-10 11:29:00,
2013-10-10 07:30:00,67.1,65.0,29.97,NNE,29,2.0,5.0,93,0.00,,BKN048,0.00,VWS V14.01,2013-10-10 11:30:00,
2013-10-10 07:31:00,67.1,65.0,29.97,NNE,29,2.0,5.0,93,0.00,,SCT035,0.00,VWS V14.01,2013-10-10 11:31:00,
2013-10-10 07:32:00,67.1,65.0,29.97,NE,37,3.0,5.0,93,0.00,,SCT035,0.00,VWS V14.01,2013-10-10 11:32:00,
2013-10-10 07:33:00,67.1,65.0,29.97,NNE,30,1.0,5.0,93,0.00,,SCT035,0.00,VWS V14.01,2013-10-10 11:33:00,
2013-10-10 07:34:00,67.1,65.0,29.97,NE,41,1.0,5.0,93,0.00,,SCT035,0.00,VWS V14.01,2013-10-10 11:34:00,
2013-10-10 07:35:00,67.1,65.0,29.97,NE,44,1.0,5.0,93,0.00,,BKN048,0.00,VWS V14.01,2013-10-10 11:35:00,
2013-10-10 07:36:00,67.1,65.0,29.97,NE,44,1.0,1.0,93,0.00,,SCT035,0.00,VWS V14.01,2013-10-10 11:36:00,
2013-10-10 07:37:00,67.0,64.9,29.97,NNE,16,2.0,3.0,93,0.00,,SCT035,0.00,VWS V14.01,2013-10-10 11:37:00,
2013-10-10 07:38:00,67.0,64.9,29.97,NE,45,2.0,4.0,93,0.00,,SCT035,0.00,VWS V14.01,2013-10-10 11:38:00,
2013-10-10 07:39:00,67.0,64.9,29.97,NE,49,1.0,4.0,93,0.00,,SCT035,0.00,VWS V14.01,2013-10-10 11:39:00,
2013-10-10 07:40:00,67.0,64.9,29.97,NE,41,1.0,4.0,93,0.00,,BKN048,0.00,VWS V14.01,2013-10-10 11:40:00,
2013-10-10 07:41:00,67.1,65.0,29.97,NE,42,2.0,2.0,93,0.00,,SCT035,0.00,VWS V14.01,2013-10-10 11:41:00,
2013-10-10 07:42:00,67.1,65.0,29.97,ENE,62,1.0,3.0,93,0.00,,SCT035,0.00,VWS V14.01,2013-10-10 11:42:00,
2013-10-10 07:44:00,67.1,65.0,29.97,NE,34,4.0,4.0,93,0.00,,SCT035,0.00,VWS V14.01,2013-10-10 11:44:00,
2013-10-10 07:45:00,67.1,65.0,29.97,NNE,25,1.0,4.0,93,0.00,,BKN048,0.00,VWS V14.01,2013-10-10 11:45:00,
2013-10-10 07:46:00,67.1,65.0,29.97,NE,40,5.0,5.0,93,0.00,,SCT035,0.00,VWS V14.01,2013-10-10 11:46:00,
2013-10-10 07:47:00,67.1,65.0,29.97,NNE,20,3.0,5.0,93,0.00,,SCT035,0.00,VWS V14.01,2013-10-10 11:47:00,
2013-10-10 07:49:00,67.1,65.0,29.97,NE,53,1.0,5.0,93,0.00,,SCT035,0.00,VWS V14.01,2013-10-10 11:49:00,
2013-10-10 07:50:00,67.1,65.0,29.97,NE,47,2.0,5.0,93,0.00,,SCT035,0.00,VWS V14.01,2013-10-10 11:50:00,
2013-10-10 07:51:00,67.1,65.0,29.97,WNW,296,1.0,4.0,93,0.00,,SCT035,0.00,VWS V14.01,2013-10-10 11:51:00,
2013-10-10 07:53:00,67.1,65.0,29.97,NE,36,3.0,4.0,93,0.00,,SCT035,0.00,VWS V14.01,2013-10-10 11:53:00,
2013-10-10 07:54:00,67.1,65.0,29.97,NNE,31,5.0,6.0,93,0.00,,SCT035,0.00,VWS V14.01,2013-10-10 11:54:00,
2013-10-10 07:55:00,67.1,65.0,29.97,NNE,25,2.0,6.0,93,0.00,,SCT035,0.00,VWS V14.01,2013-10-10 11:55:00,
2013-10-10 07:56:00,67.1,65.0,29.97,NNE,32,3.0,3.0,93,0.00,,SCT035,0.00,VWS V14.01,2013-10-10 11:56:00,
2013-10-10 07:58:00,67.1,65.0,29.97,North,359,4.0,6.0,93,0.00,,SCT035,0.00,VWS V14.01,2013-10-10 11:58:00,
2013-10-10 07:59:00,67.1,65.0,29.97,NNE,32,5.0,6.0,93,0.00,,SCT035,0.00,VWS V14.01,2013-10-10 11:59:00,
2013-10-10 08:00:00,67.2,65.1,29.97,NNE,20,2.0,7.0,93,0.00,,CLR,0.00,VWS V14.01,2013-10-10 12:00:00,
2013-10-10 08:01:00,67.2,65.1,29.97,NE,39,2.0,5.0,93,0.00,,CLR,0.00,VWS V14.01,2013-10-10 12:01:00,
2013-10-10 08:04:00,67.4,65.3,29.97,NE,41,2.0,5.0,93,0.00,,CLR,0.00,VWS V14.01,2013-10-10 12:04:00,
2013-10-10 08:05:00,67.5,65.4,29.97,North,355,2.0,5.0,93,0.00,,CLR,0.00,VWS V14.01,2013-10-10 12:05:00,
2013-10-10 08:06:00,67.5,65.1,29.97,NE,55,3.0,7.0,92,0.00,,CLR,0.00,VWS V14.01,2013-10-10 12:06:00,
2013-10-10 08:09:00,67.7,65.3,29.97,NE,34,1.0,7.0,92,0.00,,CLR,0.00,VWS V14.01,2013-10-10 12:09:00,
2013-10-10 08:10:00,67.8,65.4,29.97,NE,40,1.0,7.0,92,0.00,,CLR,0.00,VWS V14.01,2013-10-10 12:10:00,
2013-10-10 08:11:00,67.9,65.5,29.97,NNE,30,3.0,4.0,92,0.00,,CLR,0.00,VWS V14.01,2013-10-10 12:11:00,
2013-10-10 08:14:00,68.1,65.7,29.97,NE,42,5.0,6.0,92,0.00,,CLR,0.00,VWS V14.01,2013-10-10 12:14:00,
2013-10-10 08:15:00,68.1,65.7,29.97,NE,46,1.0,6.0,92,0.00,,CLR,0.00,VWS V14.01,2013-10-10 12:15:00,
2013-10-10 08:16:00,68.2,65.8,29.97,NNE,23,4.0,5.0,92,0.00,,CLR,0.00,VWS V14.01,2013-10-10 12:16:00,
2013-10-10 08:17:00,68.2,65.8,29.97,NE,41,3.0,5.0,92,0.00,,CLR,0.00,VWS V14.01,2013-10-10 12:17:00,
2013-10-10 08:19:00,68.4,65.7,29.97,NE,36,4.0,9.0,91,0.00,,CLR,0.00,VWS V14.01,2013-10-10 12:19:00,
2013-10-10 08:20:00,68.4,65.7,29.97,NE,39,3.0,9.0,91,0.00,,CLR,0.00,VWS V14.01,2013-10-10 12:20:00,
2013-10-10 08:22:00,68.5,65.8,29.97,NNE,13,3.0,6.0,91,0.00,,CLR,0.00,VWS V14.01,2013-10-10 12:22:00,
2013-10-10 08:24:00,68.7,66.0,29.97,NNE,18,3.0,8.0,91,0.00,,CLR,0.00,VWS V14.01,2013-10-10 12:24:00,
2013-10-10 08:25:00,68.7,66.0,29.98,NNE,23,4.0,8.0,91,0.00,,CLR,0.00,VWS V14.01,2013-10-10 12:25:00,
2013-10-10 08:27:00,68.8,65.8,29.98,NE,41,2.0,9.0,90,0.00,,CLR,0.00,VWS V14.01,2013-10-10 12:27:00,
2013-10-10 08:30:00,68.9,65.8,29.98,NNE,12,7.0,9.0,90,0.00,,CLR,0.00,VWS V14.01,2013-10-10 12:30:00,
2013-10-10 08:31:00,69.0,65.9,29.98,NNE,18,4.0,9.0,90,0.00,,CLR,0.00,VWS V14.01,2013-10-10 12:31:00,
2013-10-10 08:32:00,69.1,66.1,29.98,NE,47,4.0,4.0,90,0.00,,CLR,0.00,VWS V14.01,2013-10-10 12:32:00,
2013-10-10 08:35:00,69.3,66.2,29.98,North,354,7.0,8.0,90,0.00,,CLR,0.00,VWS V14.01,2013-10-10 12:35:00,
2013-10-10 08:36:00,69.3,65.9,29.98,NNE,30,4.0,6.0,89,0.00,,CLR,0.00,VWS V14.01,2013-10-10 12:36:00,
2013-10-10 08:37:00,69.4,66.0,29.98,NNW,345,6.0,7.0,89,0.00,,CLR,0.00,VWS V14.01,2013-10-10 12:37:00,
2013-10-10 08:38:00,69.4,66.0,29.98,NE,49,4.0,7.0,89,0.00,,CLR,0.00,VWS V14.01,2013-10-10 12:38:00,
2013-10-10 08:40:00,69.5,66.1,29.98,NNE,31,4.0,9.0,89,0.00,,CLR,0.00,VWS V14.01,2013-10-10 12:40:00,
2013-10-10 08:41:00,69.6,66.2,29.98,ENE,59,1.0,5.0,89,0.00,,CLR,0.00,VWS V14.01,2013-10-10 12:41:00,
2013-10-10 08:43:00,69.7,66.3,29.98,NNE,33,5.0,7.0,89,0.00,,CLR,0.00,VWS V14.01,2013-10-10 12:43:00,
2013-10-10 08:45:00,69.9,66.5,29.98,ENE,57,3.0,7.0,89,0.00,,CLR,0.00,VWS V14.01,2013-10-10 12:45:00,
2013-10-10 08:46:00,69.9,66.2,29.98,NNE,26,4.0,8.0,88,0.00,,CLR,0.00,VWS V14.01,2013-10-10 12:46:00,
2013-10-10 08:48:00,69.9,66.2,29.98,NE,42,11.0,11.0,88,0.00,,CLR,0.00,VWS V14.01,2013-10-10 12:48:00,
2013-10-10 08:50:00,69.9,66.2,29.98,ENE,60,1.0,11.0,88,0.00,,CLR,0.00,VWS V14.01,2013-10-10 12:50:00,
2013-10-10 08:51:00,70.1,66.4,29.98,NNE,23,6.0,7.0,88,0.00,,CLR,0.00,VWS V14.01,2013-10-10 12:51:00,
2013-10-10 08:53:00,70.2,66.5,29.98,NNE,18,4.0,9.0,88,0.00,,CLR,0.00,VWS V14.01,2013-10-10 12:53:00,
2013-10-10 08:54:00,70.2,66.5,29.98,NE,55,2.0,9.0,88,0.00,,CLR,0.00,VWS V14.01,2013-10-10 12:54:00,
2013-10-10 08:55:00,70.3,66.6,29.98,NE,41,4.0,9.0,88,0.00,,CLR,0.00,VWS V14.01,2013-10-10 12:55:00,
2013-10-10 08:57:00,70.5,66.8,29.98,NNE,31,6.0,9.0,88,0.00,,CLR,0.00,VWS V14.01,2013-10-10 12:57:00,
2013-10-10 08:59:00,70.7,66.7,29.98,NNW,329,4.0,9.0,87,0.00,,CLR,0.00,VWS V14.01,2013-10-10 12:59:00,
2013-10-10 09:00:00,70.7,66.7,29.98,NNE,20,6.0,9.0,87,0.00,,CLR,0.00,VWS V14.01,2013-10-10 13:00:00,
2013-10-10 09:01:00,70.8,66.7,29.98,NE,42,9.0,10.0,87,0.00,,CLR,0.00,VWS V14.01,2013-10-10 13:01:00,
2013-10-10 09:02:00,70.7,66.7,29.98,NNW,343,5.0,12.0,87,0.00,,CLR,0.00,VWS V14.01,2013-10-10 13:02:00,
2013-10-10 09:04:00,70.8,66.7,29.98,ENE,65,5.0,12.0,87,0.00,,CLR,0.00,VWS V14.01,2013-10-10 13:04:00,
2013-10-10 09:05:00,70.9,66.8,29.98,NNE,20,6.0,12.0,87,0.00,,CLR,0.00,VWS V14.01,2013-10-10 13:05:00,
2013-10-10 09:06:00,71.0,66.9,29.98,NNE,19,4.0,12.0,87,0.00,,CLR,0.00,VWS V14.01,2013-10-10 13:06:00,
2013-10-10 09:07:00,71.0,66.9,29.98,ENE,68,2.0,5.0,87,0.00,,CLR,0.00,VWS V14.01,2013-10-10 13:07:00,
2013-10-10 09:09:00,71.3,67.2,29.98,NE,37,5.0,6.0,87,0.00,,CLR,0.00,VWS V14.01,2013-10-10 13:09:00,
2013-10-10 09:10:00,71.4,67.0,29.99,ENE,63,5.0,11.0,86,0.00,,CLR,0.00,VWS V14.01,2013-10-10 13:10:00,
2013-10-10 09:11:00,71.4,67.0,29.99,NNE,19,6.0,11.0,86,0.00,,CLR,0.00,VWS V14.01,2013-10-10 13:11:00,
2013-10-10 09:12:00,71.4,67.0,29.99,NE,42,6.0,12.0,86,0.00,,CLR,0.00,VWS V14.01,2013-10-10 13:12:00,
2013-10-10 09:14:00,71.4,67.0,29.99,NE,40,7.0,12.0,86,0.00,,CLR,0.00,VWS V14.01,2013-10-10 13:14:00,
2013-10-10 09:15:00,71.5,67.1,29.99,NE,38,6.0,12.0,86,0.00,,CLR,0.00,VWS V14.01,2013-10-10 13:15:00,
2013-10-10 09:16:00,71.6,67.2,29.99,ENE,57,3.0,8.0,86,0.00,,CLR,0.00,VWS V14.01,2013-10-10 13:16:00,
2013-10-10 09:17:00,71.6,67.2,29.99,East,79,5.0,8.0,86,0.00,,CLR,0.00,VWS V14.01,2013-10-10 13:17:00,
2013-10-10 09:18:00,71.7,67.3,29.99,NE,51,9.0,10.0,86,0.00,,CLR,0.00,VWS V14.01,2013-10-10 13:18:00,
2013-10-10 09:19:00,71.8,67.1,29.99,NNE,33,7.0,10.0,85,0.00,,CLR,0.00,VWS V14.01,2013-10-10 13:19:00,
2013-10-10 09:20:00,71.9,67.2,29.99,NNE,27,8.0,10.0,85,0.00,,CLR,0.00,VWS V14.01,2013-10-10 13:20:00,
2013-10-10 09:21:00,71.9,67.2,29.99,NE,34,3.0,6.0,85,0.00,,CLR,0.00,VWS V14.01,2013-10-10 13:21:00,
2013-10-10 09:22:00,71.9,67.2,29.99,North,5,7.0,7.0,85,0.00,,CLR,0.00,VWS V14.01,2013-10-10 13:22:00,
2013-10-10 09:23:00,72.1,67.3,29.99,NE,38,5.0,7.0,85,0.00,,CLR,0.00,VWS V14.01,2013-10-10 13:23:00,
2013-10-10 09:24:00,72.2,67.4,29.99,ENE,68,5.0,8.0,85,0.00,,CLR,0.00,VWS V14.01,2013-10-10 13:24:00,
2013-10-10 09:25:00,72.2,67.4,29.99,ENE,65,6.0,8.0,85,0.00,,CLR,0.00,VWS V14.01,2013-10-10 13:25:00,
2013-10-10 09:26:00,72.3,67.5,29.99,NNE,20,6.0,10.0,85,0.00,,CLR,0.00,VWS V14.01,2013-10-10 13:26:00,
2013-10-10 09:27:00,72.3,67.2,29.99,NE,42,8.0,10.0,84,0.00,,CLR,0.00,VWS V14.01,2013-10-10 13:27:00,
2013-10-10 09:28:00,72.4,67.3,29.99,NE,37,5.0,11.0,84,0.00,,CLR,0.00,VWS V14.01,2013-10-10 13:28:00,
2013-10-10 09:29:00,72.4,67.3,29.99,NE,37,7.0,11.0,84,0.00,,CLR,0.00,VWS V14.01,2013-10-10 13:29:00,
2013-10-10 09:30:00,72.5,67.4,29.99,NNE,20,5.0,11.0,84,0.00,,CLR,0.00,VWS V14.01,2013-10-10 13:30:00,
2013-10-10 09:31:00,72.5,67.4,29.99,NE,53,5.0,7.0,84,0.00,,CLR,0.00,VWS V14.01,2013-10-10 13:31:00,
2013-10-10 09:32:00,72.5,67.4,29.99,North,355,8.0,12.0,84,0.00,,CLR,0.00,VWS V14.01,2013-10-10 13:32:00,
2013-10-10 09:34:00,72.6,67.5,29.99,North,357,6.0,12.0,84,0.00,,CLR,0.00,VWS V14.01,2013-10-10 13:34:00,
2013-10-10 09:35:00,72.6,67.5,29.99,NE,41,3.0,12.0,84,0.00,,CLR,0.00,VWS V14.01,2013-10-10 13:35:00,
2013-10-10 09:36:00,72.7,67.6,29.99,NNE,19,4.0,6.0,84,0.00,,CLR,0.00,VWS V14.01,2013-10-10 13:36:00,
2013-10-10 09:37:00,72.9,67.8,29.99,NE,37,2.0,6.0,84,0.00,,CLR,0.00,VWS V14.01,2013-10-10 13:37:00,
2013-10-10 09:39:00,73.1,68.0,29.99,North,11,7.0,8.0,84,0.00,,CLR,0.00,VWS V14.01,2013-10-10 13:39:00,
2013-10-10 09:40:00,73.1,68.0,29.99,North,11,8.0,9.0,84,0.00,,CLR,0.00,VWS V14.01,2013-10-10 13:40:00,
2013-10-10 09:41:00,73.3,68.2,29.99,NNE,16,6.0,6.0,84,0.00,,CLR,0.00,VWS V14.01,2013-10-10 13:41:00,
2013-10-10 09:42:00,73.3,68.2,30.00,NNE,27,3.0,9.0,84,0.00,,CLR,0.00,VWS V14.01,2013-10-10 13:42:00,
2013-10-10 09:44:00,73.4,67.9,30.00,North,11,7.0,10.0,83,0.00,,CLR,0.00,VWS V14.01,2013-10-10 13:44:00,
2013-10-10 09:45:00,73.5,68.0,30.00,NNE,27,7.0,12.0,83,0.00,,CLR,0.00,VWS V14.01,2013-10-10 13:45:00,
2013-10-10 09:46:00,73.5,68.0,30.00,NNE,22,5.0,9.0,83,0.00,,CLR,0.00,VWS V14.01,2013-10-10 13:46:00,
2013-10-10 09:47:00,73.5,68.0,30.00,NE,49,5.0,9.0,83,0.00,,CLR,0.00,VWS V14.01,2013-10-10 13:47:00,
2013-10-10 09:49:00,73.6,68.1,30.00,NNW,333,2.0,9.0,83,0.00,,CLR,0.00,VWS V14.01,2013-10-10 13:49:00,
2013-10-10 09:50:00,73.7,68.2,30.00,NNE,18,4.0,9.0,83,0.00,,CLR,0.00,VWS V14.01,2013-10-10 13:50:00,
2013-10-10 09:51:00,73.8,68.3,30.00,NNE,23,7.0,8.0,83,0.00,,CLR,0.00,VWS V14.01,2013-10-10 13:51:00,
2013-10-10 09:52:00,73.9,68.4,30.00,NE,42,8.0,9.0,83,0.00,,CLR,0.00,VWS V14.01,2013-10-10 13:52:00,
2013-10-10 09:54:00,74.0,68.5,30.00,NNE,18,3.0,9.0,83,0.00,,CLR,0.00,VWS V14.01,2013-10-10 13:54:00,
2013-10-10 09:55:00,74.1,68.3,30.00,NE,41,2.0,9.0,82,0.00,,CLR,0.00,VWS V14.01,2013-10-10 13:55:00,
2013-10-10 09:56:00,74.1,68.3,30.00,ENE,58,7.0,10.0,82,0.00,,CLR,0.00,VWS V14.01,2013-10-10 13:56:00,
2013-10-10 09:57:00,74.1,68.3,30.00,NNE,25,7.0,10.0,82,0.00,,CLR,0.00,VWS V14.01,2013-10-10 13:57:00,
2013-10-10 09:59:00,74.2,68.0,30.00,NE,43,8.0,11.0,81,0.00,,CLR,0.00,VWS V14.01,2013-10-10 13:59:00,
2013-10-10 10:00:00,74.2,68.0,30.00,NE,54,4.0,11.0,81,0.00,,CLR,0.00,VWS V14.01,2013-10-10 14:00:00,
2013-10-10 10:01:00,74.2,68.4,30.00,NNE,26,4.0,8.0,82,0.00,,CLR,0.00,VWS V14.01,2013-10-10 14:01:00,
2013-10-10 10:02:00,74.3,68.4,30.00,NE,46,9.0,10.0,82,0.00,,CLR,0.00,VWS V14.01,2013-10-10 14:02:00,
2013-10-10 10:03:00,74.3,68.4,30.00,NNE,25,7.0,10.0,82,0.00,,CLR,0.00,VWS V14.01,2013-10-10 14:03:00,
2013-10-10 10:04:00,74.4,68.2,30.00,NE,49,4.0,10.0,81,0.00,,CLR,0.00,VWS V14.01,2013-10-10 14:04:00,
2013-10-10 10:05:00,74.4,68.2,30.00,ENE,66,6.0,12.0,81,0.00,,BKN048,0.00,VWS V14.01,2013-10-10 14:05:00,
2013-10-10 10:06:00,74.4,68.2,30.00,ENE,66,6.0,12.0,81,0.00,,CLR,0.00,VWS V14.01,2013-10-10 14:06:00,
2013-10-10 10:07:00,74.5,68.3,30.00,NE,40,6.0,9.0,81,0.00,,CLR,0.00,VWS V14.01,2013-10-10 14:07:00,
2013-10-10 10:08:00,74.5,68.3,30.00,NNE,30,4.0,9.0,81,0.00,,CLR,0.00,VWS V14.01,2013-10-10 14:08:00,
2013-10-10 10:09:00,74.6,68.4,30.00,NE,51,3.0,12.0,81,0.00,,CLR,0.00,VWS V14.01,2013-10-10 14:09:00,
2013-10-10 10:10:00,74.6,68.4,30.00,ENE,68,4.0,12.0,81,0.00,,BKN048,0.00,VWS V14.01,2013-10-10 14:10:00,
2013-10-10 10:11:00,74.6,68.4,30.00,NE,49,6.0,6.0,81,0.00,,CLR,0.00,VWS V14.01,2013-10-10 14:11:00,
2013-10-10 10:12:00,74.7,68.5,30.00,NNE,23,4.0,8.0,81,0.00,,CLR,0.00,VWS V14.01,2013-10-10 14:12:00,
2013-10-10 10:13:00,74.8,68.6,30.00,NE,55,6.0,11.0,81,0.00,,CLR,0.00,VWS V14.01,2013-10-10 14:13:00,
2013-10-10 10:15:00,74.9,68.7,30.00,North,9,9.0,11.0,81,0.00,,CLR,0.00,VWS V14.01,2013-10-10 14:15:00,
2013-10-10 10:16:00,75.2,69.0,30.00,NNW,332,6.0,8.0,81,0.00,,CLR,0.00,VWS V14.01,2013-10-10 14:16:00,
2013-10-10 10:17:00,75.3,68.7,30.00,ENE,60,10.0,10.0,80,0.00,,CLR,0.00,VWS V14.01,2013-10-10 14:17:00,
2013-10-10 10:18:00,75.5,68.9,30.00,North,356,5.0,10.0,80,0.00,,CLR,0.00,VWS V14.01,2013-10-10 14:18:00,
2013-10-10 10:20:00,75.5,68.5,30.00,NE,44,3.0,10.0,79,0.00,,CLR,0.00,VWS V14.01,2013-10-10 14:20:00,
2013-10-10 10:21:00,75.7,69.1,30.00,NNE,25,3.0,6.0,80,0.00,,CLR,0.00,VWS V14.01,2013-10-10 14:21:00,
2013-10-10 10:22:00,75.7,69.1,30.00,ENE,57,3.0,6.0,80,0.00,,CLR,0.00,VWS V14.01,2013-10-10 14:22:00,
2013-10-10 10:23:00,75.9,69.3,30.00,NNE,30,2.0,9.0,80,0.00,,CLR,0.00,VWS V14.01,2013-10-10 14:23:00,
2013-10-10 10:25:00,76.0,69.0,30.00,NNW,344,8.0,12.0,79,0.00,,CLR,0.00,VWS V14.01,2013-10-10 14:25:00,
2013-10-10 10:26:00,76.0,69.0,30.00,North,9,5.0,7.0,79,0.00,,CLR,0.00,VWS V14.01,2013-10-10 14:26:00,
2013-10-10 10:27:00,76.0,69.0,30.00,NNE,33,7.0,7.0,79,0.00,,CLR,0.00,VWS V14.01,2013-10-10 14:27:00,
2013-10-10 10:29:00,76.1,69.1,30.00,NE,43,9.0,9.0,79,0.00,,CLR,0.00,VWS V14.01,2013-10-10 14:29:00,
2013-10-10 10:30:00,76.0,69.0,30.00,East,80,8.0,10.0,79,0.00,,BKN048,0.00,VWS V14.01,2013-10-10 14:30:00,
2013-10-10 10:31:00,76.0,69.0,30.00,NE,43,7.0,10.0,79,0.00,,CLR,0.00,VWS V14.01,2013-10-10 14:31:00,
2013-10-10 10:32:00,76.0,69.0,30.00,NE,49,9.0,9.0,79,0.00,,CLR,0.00,VWS V14.01,2013-10-10 14:32:00,
2013-10-10 10:34:00,76.0,68.7,30.00,ENE,62,6.0,13.0,78,0.00,,CLR,0.00,VWS V14.01,2013-10-10 14:34:00,
2013-10-10 10:35:00,76.1,69.1,30.00,NE,44,8.0,13.0,79,0.00,,BKN048,0.00,VWS V14.01,2013-10-10 14:35:00,
2013-10-10 10:36:00,76.1,69.1,30.00,NNE,32,5.0,8.0,79,0.00,,CLR,0.00,VWS V14.01,2013-10-10 14:36:00,
2013-10-10 10:37:00,76.1,68.8,30.00,NNE,14,8.0,11.0,78,0.00,,CLR,0.00,VWS V14.01,2013-10-10 14:37:00,
2013-10-10 10:38:00,76.1,69.1,30.00,North,8,2.0,11.0,79,0.00,,CLR,0.00,VWS V14.01,2013-10-10 14:38:00,
2013-10-10 10:39:00,76.2,68.8,30.00,NE,40,7.0,11.0,78,0.00,,CLR,0.00,VWS V14.01,2013-10-10 14:39:00,
2013-10-10 10:40:00,76.3,69.3,30.00,NNE,20,4.0,11.0,79,0.00,,BKN048,0.00,VWS V14.01,2013-10-10 14:40:00,
2013-10-10 10:42:00,76.4,69.0,30.00,NNE,23,7.0,10.0,78,0.00,,CLR,0.00,VWS V14.01,2013-10-10 14:42:00,
2013-10-10 10:43:00,76.4,69.0,30.00,ENE,67,7.0,10.0,78,0.00,,CLR,0.00,VWS V14.01,2013-10-10 14:43:00,
2013-10-10 10:44:00,76.4,69.0,30.00,NE,49,7.0,12.0,78,0.00,,CLR,0.00,VWS V14.01,2013-10-10 14:44:00,
2013-10-10 10:45:00,76.5,69.5,30.00,ENE,58,5.0,12.0,79,0.00,,BKN048,0.00,VWS V14.01,2013-10-10 14:45:00,
2013-10-10 10:47:00,76.5,69.1,30.00,NE,54,5.0,7.0,78,0.00,,CLR,0.00,VWS V14.01,2013-10-10 14:47:00,
2013-10-10 10:48:00,76.5,69.1,30.00,NE,38,6.0,8.0,78,0.00,,CLR,0.00,VWS V14.01,2013-10-10 14:48:00,
2013-10-10 10:49:00,76.6,69.2,30.00,NE,51,6.0,10.0,78,0.00,,CLR,0.00,VWS V14.01,2013-10-10 14:49:00,
2013-10-10 10:50:00,76.6,69.2,30.00,NNE,30,8.0,10.0,78,0.00,,BKN048,0.00,VWS V14.01,2013-10-10 14:50:00,
2013-10-10 10:52:00,76.6,69.2,30.00,East,79,7.0,8.0,78,0.00,,CLR,0.00,VWS V14.01,2013-10-10 14:52:00,
2013-10-10 10:53:00,76.6,69.2,30.00,NE,50,7.0,8.0,78,0.00,,CLR,0.00,VWS V14.01,2013-10-10 14:53:00,
2013-10-10 10:54:00,76.7,69.3,30.00,NE,49,10.0,10.0,78,0.00,,CLR,0.00,VWS V14.01,2013-10-10 14:54:00,
2013-10-10 10:55:00,76.8,69.4,30.00,ENE,77,4.0,10.0,78,0.00,,BKN048,0.00,VWS V14.01,2013-10-10 14:55:00,
2013-10-10 10:57:00,76.9,69.5,30.00,NE,54,5.0,9.0,78,0.00,,CLR,0.00,VWS V14.01,2013-10-10 14:57:00,
2013-10-10 10:58:00,77.0,69.6,30.00,East,79,5.0,9.0,78,0.00,,CLR,0.00,VWS V14.01,2013-10-10 14:58:00,
2013-10-10 10:59:00,77.1,69.7,30.01,NNE,23,6.0,9.0,78,0.00,,CLR,0.00,VWS V14.01,2013-10-10 14:59:00,
2013-10-10 11:00:00,77.1,69.3,30.01,NE,45,7.0,9.0,77,0.00,,BKN048,0.00,VWS V14.01,2013-10-10 15:00:00,
2013-10-10 11:02:00,77.1,69.3,30.01,NE,42,8.0,11.0,77,0.00,,CLR,0.00,VWS V14.01,2013-10-10 15:02:00,
2013-10-10 11:03:00,77.1,69.3,30.01,NE,46,5.0,11.0,77,0.00,,CLR,0.00,VWS V14.01,2013-10-10 15:03:00,
2013-10-10 11:04:00,77.1,69.7,30.00,East,89,9.0,11.0,78,0.00,,CLR,0.00,VWS V14.01,2013-10-10 15:04:00,
2013-10-10 11:05:00,77.1,69.7,30.00,ENE,60,7.0,11.0,78,0.00,,BKN048,0.00,VWS V14.01,2013-10-10 15:05:00,
2013-10-10 11:07:00,77.1,69.7,30.00,ENE,71,6.0,9.0,78,0.00,,CLR,0.00,VWS V14.01,2013-10-10 15:07:00,
2013-10-10 11:08:00,77.1,69.7,30.00,ENE,75,7.0,9.0,78,0.00,,CLR,0.00,VWS V14.01,2013-10-10 15:08:00,
2013-10-10 11:09:00,77.1,69.3,30.00,ENE,71,5.0,9.0,77,0.00,,CLR,0.00,VWS V14.01,2013-10-10 15:09:00,
2013-10-10 11:10:00,77.1,69.7,30.00,ENE,75,5.0,9.0,78,0.00,,BKN048,0.00,VWS V14.01,2013-10-10 15:10:00,
2013-10-10 11:13:00,77.5,70.1,30.01,NNE,23,5.0,7.0,78,0.00,,CLR,0.00,VWS V14.01,2013-10-10 15:13:00,
2013-10-10 11:14:00,77.6,69.8,30.01,NE,39,6.0,7.0,77,0.00,,CLR,0.00,VWS V14.01,2013-10-10 15:14:00,
2013-10-10 11:15:00,77.9,70.5,30.00,NNE,16,7.0,8.0,78,0.00,,BKN048,0.00,VWS V14.01,2013-10-10 15:15:00,
2013-10-10 11:18:00,78.2,70.4,30.00,NNW,338,7.0,7.0,77,0.00,,CLR,0.00,VWS V14.01,2013-10-10 15:18:00,
2013-10-10 11:19:00,78.4,70.2,30.00,NE,34,2.0,8.0,76,0.00,,CLR,0.00,VWS V14.01,2013-10-10 15:19:00,
2013-10-10 11:20:00,78.4,70.2,30.01,ENE,63,6.0,8.0,76,0.00,,BKN048,0.00,VWS V14.01,2013-10-10 15:20:00,
2013-10-10 11:23:00,78.3,70.5,30.00,NE,34,7.0,8.0,77,0.00,,CLR,0.00,VWS V14.01,2013-10-10 15:23:00,
2013-10-10 11:24:00,78.3,70.1,30.00,North,6,5.0,8.0,76,0.00,,CLR,0.00,VWS V14.01,2013-10-10 15:24:00,
2013-10-10 11:25:00,78.3,70.1,30.00,NE,50,2.0,8.0,76,0.00,,CLR,0.00,VWS V14.01,2013-10-10 15:25:00,
2013-10-10 11:28:00,78.3,70.1,30.00,NNE,13,3.0,9.0,76,0.00,,CLR,0.00,VWS V14.01,2013-10-10 15:28:00,
2013-10-10 11:29:00,78.3,70.1,30.00,East,89,7.0,9.0,76,0.00,,CLR,0.00,VWS V14.01,2013-10-10 15:29:00,
2013-10-10 11:30:00,78.3,70.1,30.00,ENE,60,7.0,9.0,76,0.00,,CLR,0.00,VWS V14.01,2013-10-10 15:30:00,
2013-10-10 11:33:00,78.4,70.2,30.00,NE,49,6.0,7.0,76,0.00,,CLR,0.00,VWS V14.01,2013-10-10 15:33:00,
2013-10-10 11:34:00,78.3,70.1,30.00,NE,46,3.0,7.0,76,0.00,,CLR,0.00,VWS V14.01,2013-10-10 15:34:00,
2013-10-10 11:35:00,78.3,70.5,30.00,NNE,13,6.0,7.0,77,0.00,,CLR,0.00,VWS V14.01,2013-10-10 15:35:00,
2013-10-10 11:38:00,78.4,70.2,30.00,ENE,72,10.0,10.0,76,0.00,,CLR,0.00,VWS V14.01,2013-10-10 15:38:00,
2013-10-10 11:39:00,78.3,70.1,30.00,ESE,103,3.0,10.0,76,0.00,,CLR,0.00,VWS V14.01,2013-10-10 15:39:00,
2013-10-10 11:40:00,78.3,70.1,30.00,East,97,4.0,10.0,76,0.00,,CLR,0.00,VWS V14.01,2013-10-10 15:40:00,
2013-10-10 11:43:00,78.6,70.8,30.00,NE,47,5.0,6.0,77,0.00,,CLR,0.00,VWS V14.01,2013-10-10 15:43:00,
2013-10-10 11:44:00,78.7,70.9,30.00,East,86,5.0,6.0,77,0.00,,CLR,0.00,VWS V14.01,2013-10-10 15:44:00,
2013-10-10 11:45:00,78.9,70.7,30.00,ENE,71,6.0,7.0,76,0.00,,CLR,0.00,VWS V14.01,2013-10-10 15:45:00,
2013-10-10 11:49:00,79.2,71.4,30.00,NW,326,2.0,7.0,77,0.00,,CLR,0.00,VWS V14.01,2013-10-10 15:49:00,
2013-10-10 11:50:00,79.4,71.2,30.00,NW,319,6.0,8.0,76,0.00,,CLR,0.00,VWS V14.01,2013-10-10 15:50:00,
2013-10-10 11:54:00,80.0,71.0,30.00,NE,49,8.0,8.0,74,0.00,,CLR,0.00,VWS V14.01,2013-10-10 15:54:00,
2013-10-10 11:55:00,79.9,70.9,30.00,ENE,60,3.0,10.0,74,0.00,,CLR,0.00,VWS V14.01,2013-10-10 15:55:00,
2013-10-10 11:59:00,79.4,70.4,30.00,NE,47,4.0,7.0,74,0.00,,CLR,0.00,VWS V14.01,2013-10-10 15:59:00,
2013-10-10 12:00:00,79.3,69.9,30.00,NE,47,4.0,7.0,73,0.00,,CLR,0.00,VWS V14.01,2013-10-10 16:00:00,
2013-10-10 12:01:00,79.3,69.9,30.00,ENE,61,1.0,7.0,73,0.00,,CLR,0.00,VWS V14.01,2013-10-10 16:01:00,
2013-10-10 12:04:00,79.3,69.5,30.00,NNE,18,4.0,7.0,72,0.00,,CLR,0.00,VWS V14.01,2013-10-10 16:04:00,
2013-10-10 12:05:00,79.4,70.0,30.00,NNE,27,5.0,7.0,73,0.00,,CLR,0.00,VWS V14.01,2013-10-10 16:05:00,
2013-10-10 12:06:00,79.5,70.1,30.00,East,82,2.0,7.0,73,0.00,,CLR,0.00,VWS V14.01,2013-10-10 16:06:00,
2013-10-10 12:09:00,79.8,70.0,30.00,ENE,67,3.0,7.0,72,0.00,,CLR,0.00,VWS V14.01,2013-10-10 16:09:00,
2013-10-10 12:10:00,79.7,69.5,30.00,NE,47,1.0,7.0,71,0.00,,CLR,0.00,VWS V14.01,2013-10-10 16:10:00,
2013-10-10 12:11:00,79.6,69.4,30.00,NE,36,4.0,7.0,71,0.00,,CLR,0.00,VWS V14.01,2013-10-10 16:11:00,
2013-10-10 12:14:00,79.4,70.4,30.00,NE,45,2.0,5.0,74,0.00,,CLR,0.00,VWS V14.01,2013-10-10 16:14:00,
2013-10-10 12:15:00,79.4,70.4,30.00,NE,56,2.0,5.0,74,0.00,,CLR,0.00,VWS V14.01,2013-10-10 16:15:00,
2013-10-10 12:16:00,79.4,70.4,30.00,ENE,60,2.0,5.0,74,0.00,,CLR,0.00,VWS V14.01,2013-10-10 16:16:00,
2013-10-10 12:19:00,79.8,70.0,30.00,East,79,7.0,8.0,72,0.00,,CLR,0.00,VWS V14.01,2013-10-10 16:19:00,
2013-10-10 12:20:00,79.9,70.1,30.00,East,85,6.0,8.0,72,0.00,,CLR,0.00,VWS V14.01,2013-10-10 16:20:00,
2013-10-10 12:21:00,79.9,70.1,30.00,ENE,78,5.0,8.0,72,0.00,,CLR,0.00,VWS V14.01,2013-10-10 16:21:00,
2013-10-10 12:24:00,79.8,70.4,29.99,North,11,2.0,9.0,73,0.00,,CLR,0.00,VWS V14.01,2013-10-10 16:24:00,
2013-10-10 12:25:00,79.9,70.9,29.99,NNW,343,1.0,9.0,74,0.00,,CLR,0.00,VWS V14.01,2013-10-10 16:25:00,
2013-10-10 12:26:00,80.0,71.0,29.99,NW,309,1.0,9.0,74,0.00,,CLR,0.00,VWS V14.01,2013-10-10 16:26:00,
2013-10-10 12:29:00,80.8,71.3,29.99,NNE,32,4.0,6.0,73,0.00,,CLR,0.00,VWS V14.01,2013-10-10 16:29:00,
2013-10-10 12:30:00,80.8,70.1,29.99,NE,36,3.0,8.0,70,0.00,,BKN048,0.00,VWS V14.01,2013-10-10 16:30:00,
2013-10-10 12:31:00,80.8,70.1,29.99,NE,54,3.0,8.0,70,0.00,,CLR,0.00,VWS V14.01,2013-10-10 16:31:00,
2013-10-10 12:34:00,80.8,70.5,29.99,NNE,30,4.0,8.0,71,0.00,,CLR,0.00,VWS V14.01,2013-10-10 16:34:00,
2013-10-10 12:35:00,81.1,70.8,29.99,NE,56,3.0,8.0,71,0.00,,BKN048,0.00,VWS V14.01,2013-10-10 16:35:00,
2013-10-10 12:36:00,81.1,70.8,29.99,ENE,58,3.0,8.0,71,0.00,,CLR,0.00,VWS V14.01,2013-10-10 16:36:00,
2013-10-10 12:39:00,81.3,70.2,29.99,NE,51,4.0,7.0,69,0.00,,CLR,0.00,VWS V14.01,2013-10-10 16:39:00,
2013-10-10 12:40:00,81.3,70.6,29.99,ENE,68,3.0,7.0,70,0.00,,BKN048,0.00,VWS V14.01,2013-10-10 16:40:00,
2013-10-10 12:41:00,81.3,70.6,29.99,East,97,5.0,5.0,70,0.00,,CLR,0.00,VWS V14.01,2013-10-10 16:41:00,
2013-10-10 12:45:00,81.6,70.4,29.99,NW,309,4.0,5.0,69,0.00,,CLR,0.00,VWS V14.01,2013-10-10 16:45:00,
2013-10-10 12:46:00,81.8,70.6,29.99,North,352,4.0,4.0,69,0.00,,CLR,0.00,VWS V14.01,2013-10-10 16:46:00,
2013-10-10 12:50:00,82.2,71.0,29.99,NNW,329,6.0,9.0,69,0.00,,CLR,0.00,VWS V14.01,2013-10-10 16:50:00,
2013-10-10 12:51:00,82.3,70.7,29.99,NNE,20,4.0,7.0,68,0.00,,CLR,0.00,VWS V14.01,2013-10-10 16:51:00,
2013-10-10 12:52:00,82.3,70.7,29.99,North,357,2.0,7.0,68,0.00,,CLR,0.00,VWS V14.01,2013-10-10 16:52:00,
2013-10-10 12:55:00,81.9,69.9,29.99,NNE,33,4.0,8.0,67,0.00,,CLR,0.00,VWS V14.01,2013-10-10 16:55:00,
2013-10-10 12:56:00,81.7,70.6,29.99,NE,46,3.0,5.0,69,0.00,,CLR,0.00,VWS V14.01,2013-10-10 16:56:00,
2013-10-10 12:57:00,81.7,70.6,29.99,NW,323,2.0,5.0,69,0.00,,CLR,0.00,VWS V14.01,2013-10-10 16:57:00,
2013-10-10 13:00:00,81.4,69.8,29.98,NW,323,2.0,7.0,68,0.00,,BKN032,0.00,VWS V14.01,2013-10-10 17:00:00,
2013-10-10 13:02:00,81.2,70.1,29.98,NNE,13,6.0,7.0,69,0.00,,BKN032,0.00,VWS V14.01,2013-10-10 17:02:00,
2013-10-10 13:03:00,81.1,70.0,29.98,NE,41,4.0,7.0,69,0.00,,BKN032,0.00,VWS V14.01,2013-10-10 17:03:00,
2013-10-10 13:05:00,80.9,69.8,29.98,North,3,3.0,7.0,69,0.00,,BKN032,0.00,VWS V14.01,2013-10-10 17:05:00,
2013-10-10 13:07:00,80.8,69.7,29.98,NNE,13,3.0,3.0,69,0.00,,BKN032,0.00,VWS V14.01,2013-10-10 17:07:00,
2013-10-10 13:08:00,80.9,70.2,29.98,North,349,6.0,6.0,70,0.00,,BKN032,0.00,VWS V14.01,2013-10-10 17:08:00,
2013-10-10 13:10:00,80.9,69.8,29.98,NW,319,5.0,9.0,69,0.00,,BKN032,0.00,VWS V14.01,2013-10-10 17:10:00,
2013-10-10 13:12:00,80.8,69.7,29.98,ENE,66,3.0,9.0,69,0.00,,BKN032,0.00,VWS V14.01,2013-10-10 17:12:00,
2013-10-10 13:13:00,80.9,69.8,29.98,NNE,13,3.0,9.0,69,0.00,,BKN032,0.00,VWS V14.01,2013-10-10 17:13:00,
2013-10-10 13:14:00,81.0,70.3,29.98,NE,45,6.0,10.0,70,0.00,,BKN032,0.00,VWS V14.01,2013-10-10 17:14:00,
2013-10-10 13:15:00,81.0,69.9,29.98,ENE,75,2.0,10.0,69,0.00,,BKN048,0.00,VWS V14.01,2013-10-10 17:15:00,
2013-10-10 13:16:00,81.0,69.9,29.98,East,81,3.0,10.0,69,0.00,,BKN032,0.00,VWS V14.01,2013-10-10 17:16:00,
2013-10-10 13:17:00,81.1,70.0,29.98,NE,55,2.0,4.0,69,0.00,,BKN032,0.00,VWS V14.01,2013-10-10 17:17:00,
2013-10-10 13:18:00,81.2,70.1,29.98,East,85,2.0,4.0,69,0.00,,BKN032,0.00,VWS V14.01,2013-10-10 17:18:00,
2013-10-10 13:19:00,81.3,70.6,29.98,NNW,330,3.0,4.0,70,0.00,,BKN032,0.00,VWS V14.01,2013-10-10 17:19:00,
2013-10-10 13:20:00,81.5,69.9,29.98,WNW,295,1.0,4.0,68,0.00,,BKN032,0.00,VWS V14.01,2013-10-10 17:20:00,
2013-10-10 13:21:00,81.8,70.2,29.97,South,187,0.0,0.0,68,0.00,,BKN032,0.00,VWS V14.01,2013-10-10 17:21:00,
2013-10-10 13:22:00,82.1,70.1,29.97,ENE,69,4.0,9.0,67,0.00,,BKN032,0.00,VWS V14.01,2013-10-10 17:22:00,
2013-10-10 13:23:00,82.4,71.2,29.97,NE,44,7.0,9.0,69,0.00,,BKN032,0.00,VWS V14.01,2013-10-10 17:23:00,
2013-10-10 13:24:00,82.5,71.3,29.97,ENE,75,6.0,9.0,69,0.00,,BKN032,0.00,VWS V14.01,2013-10-10 17:24:00,
2013-10-10 13:25:00,82.5,70.0,29.97,ESE,110,2.0,9.0,66,0.00,,BKN032,0.00,VWS V14.01,2013-10-10 17:25:00,
2013-10-10 13:26:00,82.5,70.4,29.97,NW,320,4.0,7.0,67,0.00,,BKN032,0.00,VWS V14.01,2013-10-10 17:26:00,
2013-10-10 13:27:00,82.5,70.0,29.97,NW,320,8.0,8.0,66,0.00,,BKN032,0.00,VWS V14.01,2013-10-10 17:27:00,
2013-10-10 13:28:00,82.5,70.0,29.97,NW,321,3.0,8.0,66,0.00,,BKN032,0.00,VWS V14.01,2013-10-10 17:28:00,
2013-10-10 13:29:00,82.5,70.4,29.97,NE,44,4.0,8.0,67,0.00,,BKN032,0.00,VWS V14.01,2013-10-10 17:29:00,
2013-10-10 13:30:00,82.7,71.1,29.97,NNE,25,8.0,9.0,68,0.00,,BKN032,0.00,VWS V14.01,2013-10-10 17:30:00,
2013-10-10 13:31:00,82.7,70.2,29.97,NE,39,2.0,4.0,66,0.00,,BKN032,0.00,VWS V14.01,2013-10-10 17:31:00,
2013-10-10 13:33:00,82.6,70.1,29.97,East,80,3.0,10.0,66,0.00,,BKN032,0.00,VWS V14.01,2013-10-10 17:33:00,
2013-10-10 13:34:00,82.7,70.6,29.97,NNE,25,3.0,10.0,67,0.00,,BKN032,0.00,VWS V14.01,2013-10-10 17:34:00,
2013-10-10 13:35:00,83.1,71.4,29.97,NNW,338,6.0,10.0,68,0.00,,BKN048,0.00,VWS V14.01,2013-10-10 17:35:00,
2013-10-10 13:36:00,83.1,70.6,29.97,NNW,340,5.0,6.0,66,0.00,,BKN032,0.00,VWS V14.01,2013-10-10 17:36:00,
2013-10-10 13:38:00,82.9,69.9,29.96,North,9,7.0,10.0,65,0.00,,BKN032,0.00,VWS V14.01,2013-10-10 17:38:00,
2013-10-10 13:39:00,82.8,70.3,29.96,NNE,31,4.0,10.0,66,0.00,,BKN032,0.00,VWS V14.01,2013-10-10 17:39:00,
2013-10-10 13:40:00,82.6,70.1,29.96,NE,46,5.0,10.0,66,0.00,,BKN048,0.00,VWS V14.01,2013-10-10 17:40:00,
2013-10-10 13:41:00,82.6,70.1,29.96,NE,55,3.0,6.0,66,0.00,,BKN032,0.00,VWS V14.01,2013-10-10 17:41:00,
2013-10-10 13:43:00,82.5,70.4,29.96,NNE,25,4.0,7.0,67,0.00,,BKN032,0.00,VWS V14.01,2013-10-10 17:43:00,
2013-10-10 13:44:00,82.5,70.4,29.96,NNE,20,5.0,7.0,67,0.00,,BKN032,0.00,VWS V14.01,2013-10-10 17:44:00,
2013-10-10 13:45:00,82.3,69.8,29.96,NW,309,5.0,7.0,66,0.00,,BKN048,0.00,VWS V14.01,2013-10-10 17:45:00,
2013-10-10 13:46:00,82.3,70.3,29.96,NW,326,2.0,6.0,67,0.00,,BKN032,0.00,VWS V14.01,2013-10-10 17:46:00,
2013-10-10 13:48:00,82.3,70.3,29.96,NNE,27,1.0,6.0,67,0.00,,BKN032,0.00,VWS V14.01,2013-10-10 17:48:00,
2013-10-10 13:49:00,82.3,70.3,29.96,East,82,1.0,6.0,67,0.00,,BKN032,0.00,VWS V14.01,2013-10-10 17:49:00,
2013-10-10 13:50:00,82.4,69.9,29.96,NE,37,3.0,6.0,66,0.00,,BKN048,0.00,VWS V14.01,2013-10-10 17:50:00,
2013-10-10 13:51:00,82.4,70.3,29.96,NNE,13,1.0,3.0,67,0.00,,BKN032,0.00,VWS V14.01,2013-10-10 17:51:00,
2013-10-10 13:53:00,82.4,70.8,29.95,NNE,18,3.0,3.0,68,0.00,,BKN032,0.00,VWS V14.01,2013-10-10 17:53:00,
2013-10-10 13:54:00,82.4,70.8,29.95,ENE,68,1.0,4.0,68,0.00,,BKN032,0.00,VWS V14.01,2013-10-10 17:54:00,
2013-10-10 13:55:00,82.5,70.9,29.96,ENE,58,1.0,4.0,68,0.00,,BKN032,0.00,VWS V14.01,2013-10-10 17:55:00,
2013-10-10 13:56:00,82.8,70.3,29.95,NNW,344,3.0,5.0,66,0.00,,BKN032,0.00,VWS V14.01,2013-10-10 17:56:00,
2013-10-10 13:57:00,82.8,70.3,29.95,East,84,4.0,5.0,66,0.00,,BKN032,0.00,VWS V14.01,2013-10-10 17:57:00,
2013-10-10 13:58:00,82.8,70.3,29.95,ENE,78,5.0,8.0,66,0.00,,BKN032,0.00,VWS V14.01,2013-10-10 17:58:00,
2013-10-10 13:59:00,82.7,70.6,29.95,ENE,58,4.0,8.0,67,0.00,,BKN032,0.00,VWS V14.01,2013-10-10 17:59:00,
2013-10-10 14:00:00,82.6,70.1,29.95,ENE,65,3.0,8.0,66,0.00,,BKN032,0.00,VWS V14.01,2013-10-10 18:00:00,
2013-10-10 14:01:00,82.4,70.3,29.95,ENE,65,8.0,8.0,67,0.00,,BKN036,0.00,VWS V14.01,2013-10-10 18:01:00,
2013-10-10 14:02:00,82.4,70.3,29.95,NE,51,6.0,8.0,67,0.00,,BKN036,0.00,VWS V14.01,2013-10-10 18:02:00,
2013-10-10 14:03:00,82.3,70.3,29.95,East,89,3.0,8.0,67,0.00,,BKN036,0.00,VWS V14.01,2013-10-10 18:03:00,
2013-10-10 14:04:00,82.3,70.3,29.95,ENE,70,5.0,8.0,67,0.00,,BKN036,0.00,VWS V14.01,2013-10-10 18:04:00,
2013-10-10 14:05:00,82.4,70.3,29.95,NE,37,3.0,8.0,67,0.00,,BKN036,0.00,VWS V14.01,2013-10-10 18:05:00,
2013-10-10 14:07:00,82.6,70.5,29.95,ESE,103,0.0,2.0,67,0.00,,BKN036,0.00,VWS V14.01,2013-10-10 18:07:00,
2013-10-10 14:08:00,82.8,70.3,29.95,NW,319,2.0,4.0,66,0.00,,BKN036,0.00,VWS V14.01,2013-10-10 18:08:00,
2013-10-10 14:09:00,83.0,70.5,29.95,North,4,5.0,7.0,66,0.00,,BKN036,0.00,VWS V14.01,2013-10-10 18:09:00,
2013-10-10 14:10:00,83.1,70.6,29.95,NNW,333,2.0,7.0,66,0.00,,BKN036,0.00,VWS V14.01,2013-10-10 18:10:00,
2013-10-10 14:12:00,83.2,70.2,29.95,NE,55,3.0,5.0,65,0.00,,BKN036,0.00,VWS V14.01,2013-10-10 18:12:00,
2013-10-10 14:13:00,83.3,69.9,29.95,NE,55,4.0,6.0,64,0.00,,BKN036,0.00,VWS V14.01,2013-10-10 18:13:00,
2013-10-10 14:14:00,83.3,69.9,29.95,NNE,32,8.0,8.0,64,0.00,,BKN036,0.00,VWS V14.01,2013-10-10 18:14:00,
2013-10-10 14:15:00,83.2,69.8,29.94,ENE,76,6.0,8.0,64,0.00,,BKN036,0.00,VWS V14.01,2013-10-10 18:15:00,
2013-10-10 14:17:00,83.3,70.3,29.94,ENE,72,4.0,6.0,65,0.00,,BKN036,0.00,VWS V14.01,2013-10-10 18:17:00,
2013-10-10 14:18:00,83.4,69.9,29.94,ENE,66,3.0,6.0,64,0.00,,BKN036,0.00,VWS V14.01,2013-10-10 18:18:00,
2013-10-10 14:19:00,83.3,69.9,29.94,ENE,77,6.0,7.0,64,0.00,,BKN036,0.00,VWS V14.01,2013-10-10 18:19:00,
2013-10-10 14:20:00,83.3,70.3,29.94,NNE,33,3.0,7.0,65,0.00,,BKN036,0.00,VWS V14.01,2013-10-10 18:20:00,
2013-10-10 14:21:00,83.4,70.4,29.94,ENE,58,4.0,7.0,65,0.00,,BKN036,0.00,VWS V14.01,2013-10-10 18:21:00,
2013-10-10 14:22:00,83.5,70.9,29.94,NE,49,2.0,6.0,66,0.00,,BKN036,0.00,VWS V14.01,2013-10-10 18:22:00,
2013-10-10 14:24:00,83.7,70.2,29.94,NE,44,4.0,7.0,64,0.00,,BKN036,0.00,VWS V14.01,2013-10-10 18:24:00,
2013-10-10 14:25:00,83.6,70.1,29.94,NE,34,5.0,7.0,64,0.00,,BKN036,0.00,VWS V14.01,2013-10-10 18:25:00,
2013-10-10 14:26:00,83.5,69.6,29.94,NNE,30,6.0,7.0,63,0.00,,BKN036,0.00,VWS V14.01,2013-10-10 18:26:00,
2013-10-10 14:27:00,83.3,69.4,29.94,ENE,65,4.0,10.0,63,0.00,,BKN036,0.00,VWS V14.01,2013-10-10 18:27:00,
2013-10-10 14:29:00,83.2,69.8,29.94,NE,53,3.0,10.0,64,0.00,,BKN036,0.00,VWS V14.01,2013-10-10 18:29:00,
2013-10-10 14:30:00,83.2,70.7,29.94,ESE,115,1.0,10.0,66,0.00,,BKN036,0.00,VWS V14.01,2013-10-10 18:30:00,
2013-10-10 14:31:00,83.3,70.8,29.94,ENE,70,2.0,4.0,66,0.00,,BKN036,0.00,VWS V14.01,2013-10-10 18:31:00,
2013-10-10 14:32:00,83.4,70.9,29.94,ENE,68,5.0,5.0,66,0.00,,BKN036,0.00,VWS V14.01,2013-10-10 18:32:00,
2013-10-10 14:34:00,83.3,69.4,29.94,North,354,4.0,10.0,63,0.00,,BKN036,0.00,VWS V14.01,2013-10-10 18:34:00,
2013-10-10 14:35:00,83.3,69.9,29.94,NE,51,5.0,10.0,64,0.00,,BKN036,0.00,VWS V14.01,2013-10-10 18:35:00,
2013-10-10 14:37:00,83.3,69.9,29.94,NNE,12,3.0,9.0,64,0.00,,BKN036,0.00,VWS V14.01,2013-10-10 18:37:00,
2013-10-10 14:39:00,83.4,70.4,29.94,NE,47,5.0,9.0,65,0.00,,BKN036,0.00,VWS V14.01,2013-10-10 18:39:00,
2013-10-10 14:40:00,83.4,69.9,29.94,NE,41,7.0,9.0,64,0.00,,BKN036,0.00,VWS V14.01,2013-10-10 18:40:00,
2013-10-10 14:41:00,83.3,70.3,29.94,NNE,13,4.0,4.0,65,0.00,,BKN036,0.00,VWS V14.01,2013-10-10 18:41:00,
2013-10-10 14:42:00,83.3,70.3,29.94,ENE,58,1.0,4.0,65,0.00,,BKN036,0.00,VWS V14.01,2013-10-10 18:42:00,
2013-10-10 14:44:00,83.2,70.2,29.94,North,4,4.0,8.0,65,0.00,,BKN036,0.00,VWS V14.01,2013-10-10 18:44:00,
2013-10-10 14:45:00,83.2,70.2,29.94,NE,50,6.0,8.0,65,0.00,,BKN036,0.00,VWS V14.01,2013-10-10 18:45:00,
2013-10-10 14:46:00,83.3,70.3,29.94,NNE,30,0.0,1.0,65,0.00,,BKN036,0.00,VWS V14.01,2013-10-10 18:46:00,
2013-10-10 14:47:00,83.4,69.9,29.94,ENE,60,2.0,2.0,64,0.00,,BKN036,0.00,VWS V14.01,2013-10-10 18:47:00,
2013-10-10 14:49:00,83.7,70.2,29.94,SSE,162,1.0,5.0,64,0.00,,BKN036,0.00,VWS V14.01,2013-10-10 18:49:00,
2013-10-10 14:50:00,83.7,70.2,29.94,ESE,115,0.0,5.0,64,0.00,,BKN036,0.00,VWS V14.01,2013-10-10 18:50:00,
2013-10-10 14:51:00,83.9,70.4,29.94,NW,320,3.0,3.0,64,0.00,,BKN036,0.00,VWS V14.01,2013-10-10 18:51:00,
2013-10-10 14:52:00,84.0,70.5,29.94,NW,326,2.0,4.0,64,0.00,,BKN036,0.00,VWS V14.01,2013-10-10 18:52:00,
2013-10-10 14:53:00,84.1,70.2,29.94,NNE,26,6.0,8.0,63,0.00,,BKN036,0.00,VWS V14.01,2013-10-10 18:53:00,
2013-10-10 14:55:00,83.9,70.0,29.94,ENE,65,3.0,8.0,63,0.00,,BKN036,0.00,VWS V14.01,2013-10-10 18:55:00,
2013-10-10 14:56:00,83.8,70.3,29.94,NNE,20,5.0,8.0,64,0.00,,BKN036,0.00,VWS V14.01,2013-10-10 18:56:00,
2013-10-10 14:57:00,83.7,70.2,29.94,NNW,343,4.0,8.0,64,0.00,,BKN036,0.00,VWS V14.01,2013-10-10 18:57:00,
2013-10-10 14:58:00,83.7,70.2,29.94,NNE,16,3.0,8.0,64,0.00,,BKN036,0.00,VWS V14.01,2013-10-10 18:58:00,
2013-10-10 15:00:00,83.6,69.7,29.94,NE,42,5.0,8.0,63,0.00,,SCT042,0.00,VWS V14.01,2013-10-10 19:00:00,
2013-10-10 15:01:00,83.4,69.9,29.94,East,88,2.0,6.0,64,0.00,,SCT042,0.00,VWS V14.01,2013-10-10 19:01:00,
2013-10-10 15:02:00,83.4,69.9,29.93,ENE,75,2.0,6.0,64,0.00,,SCT042,0.00,VWS V14.01,2013-10-10 19:02:00,
2013-10-10 15:03:00,83.4,69.5,29.93,East,87,0.0,6.0,63,0.00,,SCT042,0.00,VWS V14.01,2013-10-10 19:03:00,
2013-10-10 15:05:00,83.4,69.5,29.93,North,354,6.0,6.0,63,0.00,,BKN048,0.00,VWS V14.01,2013-10-10 19:05:00,
2013-10-10 15:06:00,83.4,69.9,29.93,ENE,60,3.0,6.0,64,0.00,,SCT042,0.00,VWS V14.01,2013-10-10 19:06:00,
2013-10-10 15:07:00,83.4,69.9,29.93,NNW,343,6.0,8.0,64,0.00,,SCT042,0.00,VWS V14.01,2013-10-10 19:07:00,
2013-10-10 15:08:00,83.4,69.5,29.93,NNE,12,7.0,9.0,63,0.00,,SCT042,0.00,VWS V14.01,2013-10-10 19:08:00,
2013-10-10 15:10:00,83.6,69.7,29.93,North,11,3.0,9.0,63,0.00,,BKN048,0.00,VWS V14.01,2013-10-10 19:10:00,
2013-10-10 15:11:00,83.6,69.7,29.93,NNW,335,3.0,4.0,63,0.00,,SCT042,0.00,VWS V14.01,2013-10-10 19:11:00,
2013-10-10 15:12:00,83.8,69.4,29.93,NE,37,3.0,7.0,62,0.00,,SCT042,0.00,VWS V14.01,2013-10-10 19:12:00,
2013-10-10 15:13:00,84.0,70.1,29.93,NNE,25,4.0,7.0,63,0.00,,SCT042,0.00,VWS V14.01,2013-10-10 19:13:00,
2013-10-10 15:15:00,84.1,69.7,29.93,NNE,20,7.0,8.0,62,0.00,,BKN048,0.00,VWS V14.01,2013-10-10 19:15:00,
2013-10-10 15:16:00,84.1,69.7,29.93,NNE,18,7.0,8.0,62,0.00,,SCT042,0.00,VWS V14.01,2013-10-10 19:16:00,
2013-10-10 15:17:00,84.2,69.3,29.93,North,353,5.0,8.0,61,0.00,,SCT042,0.00,VWS V14.01,2013-10-10 19:17:00,
2013-10-10 15:19:00,84.2,69.8,29.93,ENE,61,3.0,8.0,62,0.00,,SCT042,0.00,VWS V14.01,2013-10-10 19:19:00,
2013-10-10 15:20:00,84.4,69.5,29.93,ENE,60,2.0,8.0,61,0.00,,BKN048,0.00,VWS V14.01,2013-10-10 19:20:00,
2013-10-10 15:21:00,84.4,69.5,29.93,North,349,2.0,2.0,61,0.00,,SCT042,0.00,VWS V14.01,2013-10-10 19:21:00,
2013-10-10 15:22:00,84.4,69.5,29.93,NE,51,6.0,7.0,61,0.00,,SCT042,0.00,VWS V14.01,2013-10-10 19:22:00,
2013-10-10 15:25:00,84.2,69.8,29.93,ENE,69,4.0,7.0,62,0.00,,SCT042,0.00,VWS V14.01,2013-10-10 19:25:00,
2013-10-10 15:26:00,84.3,70.8,29.92,East,97,7.0,7.0,64,0.00,,SCT042,0.00,VWS V14.01,2013-10-10 19:26:00,
2013-10-10 15:27:00,84.3,70.8,29.92,ENE,64,5.0,7.0,64,0.00,,SCT042,0.00,VWS V14.01,2013-10-10 19:27:00,
2013-10-10 15:28:00,84.4,70.0,29.93,ENE,58,5.0,7.0,62,0.00,,SCT042,0.00,VWS V14.01,2013-10-10 19:28:00,
2013-10-10 15:30:00,84.4,70.0,29.92,NNW,333,7.0,7.0,62,0.00,,SCT042,0.00,VWS V14.01,2013-10-10 19:30:00,
2013-10-10 15:31:00,84.5,69.6,29.92,NE,34,9.0,9.0,61,0.00,,SCT042,0.00,VWS V14.01,2013-10-10 19:31:00,
2013-10-10 15:32:00,84.6,69.7,29.92,ENE,70,5.0,11.0,61,0.00,,SCT042,0.00,VWS V14.01,2013-10-10 19:32:00,
2013-10-10 15:33:00,84.6,69.7,29.92,NE,36,7.0,11.0,61,0.00,,SCT042,0.00,VWS V14.01,2013-10-10 19:33:00,
2013-10-10 15:35:00,84.5,69.6,29.92,ENE,75,5.0,11.0,61,0.00,,SCT042,0.00,VWS V14.01,2013-10-10 19:35:00,
2013-10-10 15:36:00,84.6,69.2,29.92,ESE,106,2.0,4.0,60,0.00,,SCT042,0.00,VWS V14.01,2013-10-10 19:36:00,
2013-10-10 15:37:00,84.6,69.2,29.92,ENE,72,5.0,5.0,60,0.00,,SCT042,0.00,VWS V14.01,2013-10-10 19:37:00,
2013-10-10 15:38:00,84.6,69.2,29.92,East,79,5.0,8.0,60,0.00,,SCT042,0.00,VWS V14.01,2013-10-10 19:38:00,
2013-10-10 15:40:00,84.6,69.2,29.92,ENE,70,4.0,9.0,60,0.00,,SCT042,0.00,VWS V14.01,2013-10-10 19:40:00,
2013-10-10 15:41:00,84.5,69.6,29.92,NE,41,3.0,6.0,61,0.00,,SCT042,0.00,VWS V14.01,2013-10-10 19:41:00,
2013-10-10 15:42:00,84.5,69.6,29.92,ENE,76,0.0,6.0,61,0.00,,SCT042,0.00,VWS V14.01,2013-10-10 19:42:00,
2013-10-10 15:43:00,84.7,69.3,29.92,ENE,72,6.0,8.0,60,0.00,,SCT042,0.00,VWS V14.01,2013-10-10 19:43:00,
2013-10-10 15:45:00,84.9,69.5,29.92,NE,46,4.0,8.0,60,0.00,,BKN048,0.00,VWS V14.01,2013-10-10 19:45:00,
2013-10-10 15:46:00,84.9,69.5,29.92,NE,43,6.0,6.0,60,0.00,,SCT042,0.00,VWS V14.01,2013-10-10 19:46:00,
2013-10-10 15:47:00,84.8,68.9,29.92,NNE,18,4.0,6.0,59,0.00,,SCT042,0.00,VWS V14.01,2013-10-10 19:47:00,
2013-10-10 15:48:00,84.8,69.4,29.92,NE,37,6.0,7.0,60,0.00,,SCT042,0.00,VWS V14.01,2013-10-10 19:48:00,
2013-10-10 15:49:00,84.7,69.8,29.92,ESE,114,2.0,7.0,61,0.00,,SCT042,0.00,VWS V14.01,2013-10-10 19:49:00,
2013-10-10 15:50:00,84.8,69.4,29.92,NNE,30,2.0,7.0,60,0.00,,BKN048,0.00,VWS V14.01,2013-10-10 19:50:00,
2013-10-10 15:51:00,84.8,69.4,29.92,NNE,15,5.0,5.0,60,0.00,,SCT042,0.00,VWS V14.01,2013-10-10 19:51:00,
2013-10-10 15:52:00,85.0,69.6,29.92,ENE,58,7.0,11.0,60,0.00,,SCT042,0.00,VWS V14.01,2013-10-10 19:52:00,
2013-10-10 15:53:00,85.0,70.1,29.92,East,88,3.0,11.0,61,0.00,,SCT042,0.00,VWS V14.01,2013-10-10 19:53:00,
2013-10-10 15:54:00,85.0,69.6,29.92,NNE,27,1.0,11.0,60,0.00,,SCT042,0.00,VWS V14.01,2013-10-10 19:54:00,
2013-10-10 15:55:00,85.2,70.2,29.92,North,8,7.0,11.0,61,0.00,,BKN048,0.00,VWS V14.01,2013-10-10 19:55:00,
2013-10-10 15:56:00,85.2,70.2,29.92,North,11,7.0,7.0,61,0.00,,SCT042,0.00,VWS V14.01,2013-10-10 19:56:00,
2013-10-10 15:57:00,85.3,70.8,29.92,ENE,78,4.0,7.0,62,0.00,,SCT042,0.00,VWS V14.01,2013-10-10 19:57:00,
2013-10-10 15:58:00,85.4,70.9,29.92,NE,47,6.0,9.0,62,0.00,,SCT042,0.00,VWS V14.01,2013-10-10 19:58:00,
2013-10-10 15:59:00,85.4,69.9,29.92,ENE,70,5.0,9.0,60,0.00,,SCT042,0.00,VWS V14.01,2013-10-10 19:59:00,
2013-10-10 16:00:00,85.3,69.8,29.92,NE,55,4.0,10.0,60,0.00,,BKN048,0.00,VWS V14.01,2013-10-10 20:00:00,
2013-10-10 16:01:00,85.3,69.8,29.92,NE,37,5.0,5.0,60,0.00,,SCT044,0.00,VWS V14.01,2013-10-10 20:01:00,
2013-10-10 16:02:00,85.0,69.6,29.92,NE,55,6.0,8.0,60,0.00,,SCT044,0.00,VWS V14.01,2013-10-10 20:02:00,
2013-10-10 16:04:00,84.7,69.3,29.92,NE,44,4.0,8.0,60,0.00,,SCT044,0.00,VWS V14.01,2013-10-10 20:04:00,
2013-10-10 16:05:00,84.5,69.6,29.92,NE,41,7.0,8.0,61,0.00,,BKN048,0.00,VWS V14.01,2013-10-10 20:05:00,
2013-10-10 16:06:00,84.4,69.5,29.92,NNE,12,5.0,7.0,61,0.00,,SCT044,0.00,VWS V14.01,2013-10-10 20:06:00,
2013-10-10 16:07:00,84.4,69.5,29.92,ENE,59,4.0,7.0,61,0.00,,SCT044,0.00,VWS V14.01,2013-10-10 20:07:00,
2013-10-10 16:09:00,84.4,69.5,29.92,NE,47,5.0,7.0,61,0.00,,SCT044,0.00,VWS V14.01,2013-10-10 20:09:00,
2013-10-10 16:10:00,84.5,69.1,29.92,NE,41,3.0,7.0,60,0.00,,SCT044,0.00,VWS V14.01,2013-10-10 20:10:00,
2013-10-10 16:11:00,84.5,69.6,29.92,NE,56,1.0,1.0,61,0.00,,SCT044,0.00,VWS V14.01,2013-10-10 20:11:00,
2013-10-10 16:12:00,84.6,69.2,29.92,NNE,31,1.0,2.0,60,0.00,,SCT044,0.00,VWS V14.01,2013-10-10 20:12:00,
2013-10-10 16:14:00,84.8,69.9,29.92,NNE,12,5.0,6.0,61,0.00,,SCT044,0.00,VWS V14.01,2013-10-10 20:14:00,
2013-10-10 16:15:00,84.9,70.0,29.92,NNE,23,5.0,7.0,61,0.00,,SCT044,0.00,VWS V14.01,2013-10-10 20:15:00,
2013-10-10 16:16:00,85.0,70.1,29.92,NNE,14,6.0,8.0,61,0.00,,SCT044,0.00,VWS V14.01,2013-10-10 20:16:00,
2013-10-10 16:17:00,85.0,70.1,29.92,NNE,30,8.0,9.0,61,0.00,,SCT044,0.00,VWS V14.01,2013-10-10 20:17:00,
2013-10-10 16:18:00,85.1,70.2,29.92,ENE,72,8.0,9.0,61,0.00,,SCT044,0.00,VWS V14.01,2013-10-10 20:18:00,
2013-10-10 16:19:00,85.1,70.2,29.92,NNE,33,11.0,11.0,61,0.00,,SCT044,0.00,VWS V14.01,2013-10-10 20:19:00,
2013-10-10 16:20:00,85.1,69.2,29.92,NNE,23,8.0,12.0,59,0.00,,SCT044,0.00,VWS V14.01,2013-10-10 20:20:00,
2013-10-10 16:21:00,85.0,69.6,29.92,North,8,9.0,9.0,60,0.00,,SCT044,0.00,VWS V14.01,2013-10-10 20:21:00,
2013-10-10 16:23:00,85.0,69.6,29.92,ENE,72,3.0,9.0,60,0.00,,SCT044,0.00,VWS V14.01,2013-10-10 20:23:00,
2013-10-10 16:24:00,85.2,69.8,29.92,NNE,30,3.0,9.0,60,0.00,,SCT044,0.00,VWS V14.01,2013-10-10 20:24:00,
2013-10-10 16:25:00,85.2,70.2,29.92,NNE,25,5.0,9.0,61,0.00,,SCT044,0.00,VWS V14.01,2013-10-10 20:25:00,
2013-10-10 16:26:00,85.3,69.4,29.91,NNE,16,4.0,8.0,59,0.00,,SCT044,0.00,VWS V14.01,2013-10-10 20:26:00,
2013-10-10 16:28:00,85.4,69.9,29.91,NE,37,5.0,9.0,60,0.00,,SCT044,0.00,VWS V14.01,2013-10-10 20:28:00,
2013-10-10 16:29:00,85.3,69.8,29.91,NE,42,4.0,9.0,60,0.00,,SCT044,0.00,VWS V14.01,2013-10-10 20:29:00,
2013-10-10 16:30:00,85.3,69.4,29.91,North,356,2.0,9.0,59,0.00,,SCT044,0.00,VWS V14.01,2013-10-10 20:30:00,
2013-10-10 16:31:00,85.3,69.8,29.91,NNE,29,3.0,3.0,60,0.00,,SCT044,0.00,VWS V14.01,2013-10-10 20:31:00,
2013-10-10 16:32:00,85.4,69.9,29.91,East,86,3.0,4.0,60,0.00,,SCT044,0.00,VWS V14.01,2013-10-10 20:32:00,
2013-10-10 16:33:00,85.4,70.4,29.91,NNE,32,2.0,4.0,61,0.00,,SCT044,0.00,VWS V14.01,2013-10-10 20:33:00,
2013-10-10 16:34:00,85.6,69.6,29.91,NE,44,2.0,4.0,59,0.00,,SCT044,0.00,VWS V14.01,2013-10-10 20:34:00,
2013-10-10 16:35:00,85.6,70.1,29.91,NE,47,1.0,4.0,60,0.00,,SCT044,0.00,VWS V14.01,2013-10-10 20:35:00,
2013-10-10 16:36:00,85.7,70.2,29.91,East,93,1.0,2.0,60,0.00,,SCT044,0.00,VWS V14.01,2013-10-10 20:36:00,
2013-10-10 16:37:00,85.8,69.3,29.91,NE,47,3.0,3.0,58,0.00,,SCT044,0.00,VWS V14.01,2013-10-10 20:37:00,
2013-10-10 16:38:00,85.8,69.3,29.91,NNE,22,4.0,6.0,58,0.00,,SCT044,0.00,VWS V14.01,2013-10-10 20:38:00,
2013-10-10 16:39:00,85.7,69.7,29.91,North,9,4.0,6.0,59,0.00,,SCT044,0.00,VWS V14.01,2013-10-10 20:39:00,
2013-10-10 16:40:00,85.7,69.7,29.91,East,91,3.0,6.0,59,0.00,,SCT044,0.00,VWS V14.01,2013-10-10 20:40:00,
2013-10-10 16:42:00,85.6,69.1,29.91,East,79,8.0,9.0,58,0.00,,SCT044,0.00,VWS V14.01,2013-10-10 20:42:00,
2013-10-10 16:43:00,85.5,69.1,29.91,ENE,70,6.0,9.0,58,0.00,,SCT044,0.00,VWS V14.01,2013-10-10 20:43:00,
2013-10-10 16:44:00,85.4,69.0,29.91,East,80,6.0,9.0,58,0.00,,SCT044,0.00,VWS V14.01,2013-10-10 20:44:00,
2013-10-10 16:45:00,85.2,68.8,29.91,East,94,4.0,9.0,58,0.00,,SCT044,0.00,VWS V14.01,2013-10-10 20:45:00,
2013-10-10 16:47:00,85.3,69.4,29.91,ENE,63,4.0,8.0,59,0.00,,SCT044,0.00,VWS V14.01,2013-10-10 20:47:00,
2013-10-10 16:48:00,85.3,69.4,29.91,ENE,57,4.0,8.0,59,0.00,,SCT044,0.00,VWS V14.01,2013-10-10 20:48:00,
2013-10-10 16:49:00,85.4,69.4,29.91,ENE,77,4.0,8.0,59,0.00,,SCT044,0.00,VWS V14.01,2013-10-10 20:49:00,
2013-10-10 16:50:00,85.4,69.4,29.91,ENE,66,4.0,8.0,59,0.00,,BKN048,0.00,VWS V14.01,2013-10-10 20:50:00,
2013-10-10 16:51:00,85.4,69.4,29.91,East,94,4.0,8.0,59,0.00,,SCT044,0.00,VWS V14.01,2013-10-10 20:51:00,
2013-10-10 16:52:00,85.5,70.0,29.91,NNE,20,2.0,5.0,60,0.00,,SCT044,0.00,VWS V14.01,2013-10-10 20:52:00,
2013-10-10 16:54:00,85.6,70.1,29.91,ESE,119,3.0,6.0,60,0.00,,SCT044,0.00,VWS V14.01,2013-10-10 20:54:00,
2013-10-10 16:55:00,85.7,69.7,29.91,ENE,67,4.0,7.0,59,0.00,,BKN048,0.00,VWS V14.01,2013-10-10 20:55:00,
2013-10-10 16:56:00,85.7,69.7,29.91,East,101,4.0,7.0,59,0.00,,SCT044,0.00,VWS V14.01,2013-10-10 20:56:00,
2013-10-10 16:58:00,85.7,70.2,29.91,ENE,63,3.0,4.0,60,0.00,,SCT044,0.00,VWS V14.01,2013-10-10 20:58:00,
2013-10-10 16:59:00,85.8,70.3,29.91,NE,39,3.0,6.0,60,0.00,,SCT044,0.00,VWS V14.01,2013-10-10 20:59:00,
2013-10-10 17:00:00,85.9,69.9,29.91,NNE,18,3.0,6.0,59,0.00,,SCT044,0.00,VWS V14.01,2013-10-10 21:00:00,
2013-10-10 17:01:00,85.9,69.4,29.91,NNW,328,3.0,5.0,58,0.00,,BKN048,0.00,VWS V14.01,2013-10-10 21:01:00,
2013-10-10 17:03:00,85.9,69.9,29.91,North,1,3.0,8.0,59,0.00,,BKN048,0.00,VWS V14.01,2013-10-10 21:03:00,
2013-10-10 17:04:00,85.9,69.9,29.91,NE,56,4.0,8.0,59,0.00,,BKN048,0.00,VWS V14.01,2013-10-10 21:04:00,
2013-10-10 17:05:00,85.9,69.4,29.91,ENE,60,4.0,8.0,58,0.00,,BKN048,0.00,VWS V14.01,2013-10-10 21:05:00,
2013-10-10 17:06:00,85.8,69.3,29.91,East,90,4.0,9.0,58,0.00,,BKN048,0.00,VWS V14.01,2013-10-10 21:06:00,
2013-10-10 17:08:00,85.6,69.1,29.91,ENE,58,3.0,9.0,58,0.00,,BKN048,0.00,VWS V14.01,2013-10-10 21:08:00,
2013-10-10 17:18:00,85.6,69.1,29.91,ENE,68,5.0,10.0,58,0.00,,BKN048,0.00,VWS V14.01,2013-10-10 21:18:00,
2013-10-10 17:23:00,83.7,68.3,29.91,ENE,78,3.0,4.0,60,0.00,,BKN048,0.00,VWS V14.01,2013-10-10 21:23:00,
2013-10-10 17:28:00,83.6,68.7,29.91,NE,47,1.0,2.0,61,0.00,,BKN048,0.00,VWS V14.01,2013-10-10 21:28:00,
2013-10-10 17:33:00,83.8,68.4,29.91,ENE,73,3.0,5.0,60,0.00,,BKN048,0.00,VWS V14.01,2013-10-10 21:33:00,
2013-10-10 17:34:00,83.8,68.4,29.91,ENE,65,2.0,5.0,60,0.00,,BKN048,0.00,VWS V14.01,2013-10-10 21:34:00,
2013-10-10 17:35:00,83.9,68.5,29.91,ENE,78,4.0,5.0,60,0.00,,BKN048,0.00,VWS V14.01,2013-10-10 21:35:00,
2013-10-10 17:38:00,84.2,68.8,29.91,NE,46,6.0,6.0,60,0.00,,BKN048,0.00,VWS V14.01,2013-10-10 21:38:00,
2013-10-10 17:39:00,84.3,67.9,29.91,NNE,13,6.0,8.0,58,0.00,,BKN048,0.00,VWS V14.01,2013-10-10 21:39:00,
2013-10-10 17:40:00,84.4,68.5,29.91,NNE,19,2.0,8.0,59,0.00,,BKN048,0.00,VWS V14.01,2013-10-10 21:40:00,
2013-10-10 17:43:00,84.5,68.1,29.91,ENE,68,6.0,8.0,58,0.00,,BKN048,0.00,VWS V14.01,2013-10-10 21:43:00,
2013-10-10 17:44:00,84.3,68.4,29.91,NE,44,4.0,8.0,59,0.00,,BKN048,0.00,VWS V14.01,2013-10-10 21:44:00,
2013-10-10 17:46:00,84.2,68.3,29.91,NE,53,6.0,8.0,59,0.00,,BKN048,0.00,VWS V14.01,2013-10-10 21:46:00,
2013-10-10 17:48:00,84.1,68.7,29.91,ENE,75,4.0,5.0,60,0.00,,BKN048,0.00,VWS V14.01,2013-10-10 21:48:00,
2013-10-10 17:49:00,84.0,68.6,29.91,NE,46,3.0,6.0,60,0.00,,BKN048,0.00,VWS V14.01,2013-10-10 21:49:00,
2013-10-10 17:50:00,84.0,68.6,29.91,NE,51,3.0,6.0,60,0.00,,BKN048,0.00,VWS V14.01,2013-10-10 21:50:00,
2013-10-10 17:51:00,84.1,69.2,29.91,East,79,2.0,3.0,61,0.00,,BKN048,0.00,VWS V14.01,2013-10-10 21:51:00,
2013-10-10 17:53:00,84.1,69.2,29.91,ENE,73,3.0,5.0,61,0.00,,BKN048,0.00,VWS V14.01,2013-10-10 21:53:00,
2013-10-10 17:54:00,84.2,69.3,29.91,ENE,65,2.0,5.0,61,0.00,,BKN048,0.00,VWS V14.01,2013-10-10 21:54:00,
2013-10-10 17:55:00,84.2,69.3,29.91,ENE,68,2.0,5.0,61,0.00,,BKN048,0.00,VWS V14.01,2013-10-10 21:55:00,
2013-10-10 17:56:00,84.3,69.4,29.91,NE,40,3.0,5.0,61,0.00,,BKN048,0.00,VWS V14.01,2013-10-10 21:56:00,
2013-10-10 17:58:00,84.3,69.4,29.91,ENE,63,5.0,5.0,61,0.00,,BKN048,0.00,VWS V14.01,2013-10-10 21:58:00,
2013-10-10 18:00:00,84.3,68.9,29.91,NE,54,3.0,6.0,60,0.00,,BKN048,0.00,VWS V14.01,2013-10-10 22:00:00,
2013-10-10 18:01:00,84.3,69.4,29.91,ENE,71,2.0,2.0,61,0.00,,CLR,0.00,VWS V14.01,2013-10-10 22:01:00,
2013-10-10 18:03:00,84.4,69.0,29.91,NE,34,1.0,4.0,60,0.00,,CLR,0.00,VWS V14.01,2013-10-10 22:03:00,
2013-10-10 18:05:00,84.4,69.0,29.91,North,354,4.0,5.0,60,0.00,,CLR,0.00,VWS V14.01,2013-10-10 22:05:00,
2013-10-10 18:06:00,84.4,68.5,29.91,NNE,32,3.0,5.0,59,0.00,,CLR,0.00,VWS V14.01,2013-10-10 22:06:00,
2013-10-10 18:07:00,84.4,68.5,29.91,NE,50,4.0,5.0,59,0.00,,CLR,0.00,VWS V14.01,2013-10-10 22:07:00,
2013-10-10 18:08:00,84.4,68.5,29.91,NE,54,3.0,6.0,59,0.00,,CLR,0.00,VWS V14.01,2013-10-10 22:08:00,
2013-10-10 18:09:00,84.4,68.5,29.91,NE,54,3.0,6.0,59,0.00,,CLR,0.00,VWS V14.01,2013-10-10 22:09:00,
2013-10-10 18:10:00,84.4,69.0,29.91,NE,39,5.0,8.0,60,0.00,,CLR,0.00,VWS V14.01,2013-10-10 22:10:00,
2013-10-10 18:11:00,84.3,68.4,29.91,NE,36,6.0,6.0,59,0.00,,CLR,0.00,VWS V14.01,2013-10-10 22:11:00,
2013-10-10 18:12:00,84.3,68.9,29.91,NE,37,3.0,6.0,60,0.00,,CLR,0.00,VWS V14.01,2013-10-10 22:12:00,
2013-10-10 18:13:00,84.3,68.9,29.91,NNE,19,4.0,6.0,60,0.00,,CLR,0.00,VWS V14.01,2013-10-10 22:13:00,
2013-10-10 18:14:00,84.3,68.9,29.91,NNE,23,4.0,6.0,60,0.00,,CLR,0.00,VWS V14.01,2013-10-10 22:14:00,
2013-10-10 18:15:00,84.2,68.3,29.91,NE,42,2.0,9.0,59,0.00,,CLR,0.00,VWS V14.01,2013-10-10 22:15:00,
2013-10-10 18:16:00,84.2,68.8,29.91,NNE,22,5.0,6.0,60,0.00,,CLR,0.00,VWS V14.01,2013-10-10 22:16:00,
2013-10-10 18:17:00,84.2,68.8,29.91,NE,44,3.0,6.0,60,0.00,,CLR,0.00,VWS V14.01,2013-10-10 22:17:00,
2013-10-10 18:19:00,84.1,68.7,29.91,NE,51,2.0,6.0,60,0.00,,CLR,0.00,VWS V14.01,2013-10-10 22:19:00,
2013-10-10 18:21:00,84.1,68.7,29.91,NE,40,3.0,6.0,60,0.00,,CLR,0.00,VWS V14.01,2013-10-10 22:21:00,
2013-10-10 18:22:00,84.0,68.1,29.91,ENE,62,3.0,8.0,59,0.00,,CLR,0.00,VWS V14.01,2013-10-10 22:22:00,
2013-10-10 18:24:00,84.0,68.1,29.91,ENE,61,4.0,8.0,59,0.00,,CLR,0.00,VWS V14.01,2013-10-10 22:24:00,
2013-10-10 18:26:00,83.9,68.5,29.91,NNE,27,2.0,3.0,60,0.00,,CLR,0.00,VWS V14.01,2013-10-10 22:26:00,
2013-10-10 18:27:00,83.9,69.0,29.91,North,11,3.0,3.0,61,0.00,,CLR,0.00,VWS V14.01,2013-10-10 22:27:00,
2013-10-10 18:29:00,84.0,69.1,29.91,NE,54,1.0,5.0,61,0.00,,CLR,0.00,VWS V14.01,2013-10-10 22:29:00,
2013-10-10 18:31:00,83.9,69.0,29.91,NE,44,2.0,2.0,61,0.00,,CLR,0.00,VWS V14.01,2013-10-10 22:31:00,
2013-10-10 18:32:00,83.9,69.0,29.91,ENE,72,1.0,3.0,61,0.00,,CLR,0.00,VWS V14.01,2013-10-10 22:32:00,
2013-10-10 18:34:00,83.9,69.0,29.91,ENE,65,2.0,3.0,61,0.00,,CLR,0.00,VWS V14.01,2013-10-10 22:34:00,
2013-10-10 18:36:00,83.8,69.4,29.91,ENE,68,1.0,1.0,62,0.00,,CLR,0.00,VWS V14.01,2013-10-10 22:36:00,
2013-10-10 18:37:00,83.7,69.3,29.91,NE,53,3.0,3.0,62,0.00,,CLR,0.00,VWS V14.01,2013-10-10 22:37:00,
2013-10-10 18:38:00,83.7,69.3,29.91,NE,54,2.0,3.0,62,0.00,,CLR,0.00,VWS V14.01,2013-10-10 22:38:00,
2013-10-10 18:39:00,83.6,68.7,29.91,NE,46,6.0,6.0,61,0.00,,CLR,0.00,VWS V14.01,2013-10-10 22:39:00,
2013-10-10 18:41:00,83.5,69.1,29.91,ENE,66,3.0,6.0,62,0.00,,CLR,0.00,VWS V14.01,2013-10-10 22:41:00,
2013-10-10 18:42:00,83.4,69.0,29.91,NE,42,3.0,6.0,62,0.00,,CLR,0.00,VWS V14.01,2013-10-10 22:42:00,
2013-10-10 18:43:00,83.3,68.9,29.91,NE,41,3.0,6.0,62,0.00,,CLR,0.00,VWS V14.01,2013-10-10 22:43:00,
2013-10-10 18:44:00,83.2,68.8,29.91,NE,42,2.0,6.0,62,0.00,,CLR,0.00,VWS V14.01,2013-10-10 22:44:00,
2013-10-10 18:45:00,83.2,69.3,29.91,NE,54,2.0,6.0,63,0.00,,CLR,0.00,VWS V14.01,2013-10-10 22:45:00,
2013-10-10 18:47:00,83.0,69.1,29.91,NNE,27,1.0,4.0,63,0.00,,CLR,0.00,VWS V14.01,2013-10-10 22:47:00,
2013-10-10 18:48:00,82.9,69.0,29.91,NNE,25,4.0,4.0,63,0.00,,CLR,0.00,VWS V14.01,2013-10-10 22:48:00,
2013-10-10 18:49:00,82.9,69.0,29.91,North,353,2.0,4.0,63,0.00,,CLR,0.00,VWS V14.01,2013-10-10 22:49:00,
2013-10-10 18:50:00,82.8,68.9,29.91,North,360,2.0,4.0,63,0.00,,CLR,0.00,VWS V14.01,2013-10-10 22:50:00,
2013-10-10 18:52:00,82.7,68.8,29.91,NNE,33,0.0,1.0,63,0.00,,CLR,0.00,VWS V14.01,2013-10-10 22:52:00,
2013-10-10 18:54:00,82.7,68.8,29.91,NNE,29,0.0,1.0,63,0.00,,CLR,0.00,VWS V14.01,2013-10-10 22:54:00,
2013-10-10 18:55:00,82.6,68.7,29.91,NNE,29,0.0,1.0,63,0.00,,CLR,0.00,VWS V14.01,2013-10-10 22:55:00,
2013-10-10 18:57:00,82.5,69.1,29.91,North,3,1.0,1.0,64,0.00,,CLR,0.00,VWS V14.01,2013-10-10 22:57:00,
2013-10-10 18:59:00,82.3,70.7,29.91,West,280,0.0,2.0,68,0.00,,CLR,0.00,VWS V14.01,2013-10-10 22:59:00,
2013-10-10 19:00:00,82.2,70.6,29.91,West,280,1.0,2.0,68,0.00,,CLR,0.00,VWS V14.01,2013-10-10 23:00:00,
2013-10-10 19:02:00,81.9,72.0,29.91,WNW,302,2.0,3.0,72,0.00,,CLR,0.00,VWS V14.01,2013-10-10 23:02:00,
2013-10-10 19:03:00,81.8,71.9,29.91,WNW,302,2.0,3.0,72,0.00,,CLR,0.00,VWS V14.01,2013-10-10 23:03:00,
2013-10-10 19:04:00,81.4,71.9,29.91,NW,307,1.0,3.0,73,0.00,,CLR,0.00,VWS V14.01,2013-10-10 23:04:00,
2013-10-10 19:05:00,81.4,71.9,29.91,NW,307,1.0,3.0,73,0.00,,CLR,0.00,VWS V14.01,2013-10-10 23:05:00,
2013-10-10 19:07:00,80.9,71.8,29.91,NNW,328,2.0,3.0,74,0.00,,CLR,0.00,VWS V14.01,2013-10-10 23:07:00,
2013-10-10 19:08:00,80.8,71.7,29.91,NW,307,2.0,3.0,74,0.00,,CLR,0.00,VWS V14.01,2013-10-10 23:08:00,
2013-10-10 19:10:00,80.6,71.9,29.91,WNW,293,4.0,8.0,75,0.00,,CLR,0.00,VWS V14.01,2013-10-10 23:10:00,
2013-10-10 19:13:00,80.2,71.6,29.91,WNW,302,2.0,4.0,75,0.00,,CLR,0.00,VWS V14.01,2013-10-10 23:13:00,
2013-10-10 19:15:00,80.0,71.4,29.91,NNW,335,1.0,4.0,75,0.00,,CLR,0.00,VWS V14.01,2013-10-10 23:15:00,
2013-10-10 19:18:00,79.8,71.6,29.91,NNW,328,3.0,5.0,76,0.00,,CLR,0.00,VWS V14.01,2013-10-10 23:18:00,
2013-10-10 19:19:00,79.7,71.5,29.91,North,351,3.0,5.0,76,0.00,,CLR,0.00,VWS V14.01,2013-10-10 23:19:00,
2013-10-10 19:20:00,79.6,71.8,29.91,WNW,293,3.0,6.0,77,0.00,,CLR,0.00,VWS V14.01,2013-10-10 23:20:00,
2013-10-10 19:23:00,79.4,71.6,29.91,WNW,300,2.0,5.0,77,0.00,,CLR,0.00,VWS V14.01,2013-10-10 23:23:00,
2013-10-10 19:24:00,79.3,71.5,29.91,NW,308,6.0,6.0,77,0.00,,CLR,0.00,VWS V14.01,2013-10-10 23:24:00,
2013-10-10 19:25:00,79.3,71.5,29.91,NW,314,1.0,6.0,77,0.00,,CLR,0.00,VWS V14.01,2013-10-10 23:25:00,
2013-10-10 19:26:00,79.3,71.5,29.91,WNW,301,2.0,6.0,77,0.00,,CLR,0.00,VWS V14.01,2013-10-10 23:26:00,
2013-10-10 19:28:00,79.2,71.4,29.91,NW,312,3.0,6.0,77,0.00,,CLR,0.00,VWS V14.01,2013-10-10 23:28:00,
2013-10-10 19:29:00,79.1,71.3,29.92,NNW,335,4.0,6.0,77,0.00,,CLR,0.00,VWS V14.01,2013-10-10 23:29:00,
2013-10-10 19:30:00,79.1,71.3,29.91,NNW,330,4.0,6.0,77,0.00,,CLR,0.00,VWS V14.01,2013-10-10 23:30:00,
2013-10-10 19:31:00,79.1,71.3,29.91,NW,305,2.0,6.0,77,0.00,,CLR,0.00,VWS V14.01,2013-10-10 23:31:00,
2013-10-10 19:33:00,79.1,71.3,29.92,NNW,343,3.0,5.0,77,0.00,,CLR,0.00,VWS V14.01,2013-10-10 23:33:00,
2013-10-10 19:35:00,79.0,71.2,29.92,WNW,303,3.0,5.0,77,0.00,,CLR,0.00,VWS V14.01,2013-10-10 23:35:00,
2013-10-10 19:36:00,79.0,71.2,29.92,NW,326,2.0,5.0,77,0.00,,CLR,0.00,VWS V14.01,2013-10-10 23:36:00,
2013-10-10 19:38:00,78.9,71.1,29.92,NNW,335,5.0,6.0,77,0.00,,CLR,0.00,VWS V14.01,2013-10-10 23:38:00,
2013-10-10 19:40:00,78.9,71.1,29.92,NNE,12,5.0,7.0,77,0.00,,CLR,0.00,VWS V14.01,2013-10-10 23:40:00,
2013-10-10 19:41:00,78.9,71.1,29.92,NNW,328,5.0,6.0,77,0.00,,CLR,0.00,VWS V14.01,2013-10-10 23:41:00,
2013-10-10 19:42:00,78.9,71.1,29.92,NNW,338,4.0,7.0,77,0.00,,CLR,0.00,VWS V14.01,2013-10-10 23:42:00,
2013-10-10 19:44:00,78.8,71.0,29.92,NNW,338,5.0,7.0,77,0.00,,CLR,0.00,VWS V14.01,2013-10-10 23:44:00,
2013-10-10 19:46:00,78.8,71.0,29.92,WNW,297,4.0,7.0,77,0.00,,CLR,0.00,VWS V14.01,2013-10-10 23:46:00,
2013-10-10 19:48:00,78.7,70.9,29.92,NW,318,2.0,4.0,77,0.00,,CLR,0.00,VWS V14.01,2013-10-10 23:48:00,
2013-10-10 19:49:00,78.7,70.9,29.92,NNW,330,3.0,4.0,77,0.00,,CLR,0.00,VWS V14.01,2013-10-10 23:49:00,
2013-10-10 19:51:00,78.6,70.8,29.92,WNW,301,2.0,3.0,77,0.00,,CLR,0.00,VWS V14.01,2013-10-10 23:51:00,
2013-10-10 19:54:00,78.5,71.1,29.92,NW,305,2.0,4.0,78,0.00,,CLR,0.00,VWS V14.01,2013-10-10 23:54:00,
2013-10-10 19:56:00,78.5,71.1,29.92,NNW,338,2.0,2.0,78,0.00,,CLR,0.00,VWS V14.01,2013-10-10 23:56:00,
2013-10-10 19:57:00,78.5,71.1,29.92,WNW,286,2.0,4.0,78,0.00,,CLR,0.00,VWS V14.01,2013-10-10 23:57:00,
2013-10-10 19:59:00,78.4,71.0,29.92,NNW,335,3.0,4.0,78,0.00,,CLR,0.00,VWS V14.01,2013-10-10 23:59:00,
2013-10-10 20:01:00,78.4,71.0,29.92,NW,314,3.0,3.0,78,0.00,,CLR,0.00,VWS V14.01,2013-10-11 00:01:00,
2013-10-10 20:02:00,78.3,70.9,29.92,NNW,338,1.0,3.0,78,0.00,,CLR,0.00,VWS V14.01,2013-10-11 00:02:00,
2013-10-10 20:04:00,78.3,70.9,29.92,NW,320,3.0,3.0,78,0.00,,CLR,0.00,VWS V14.01,2013-10-11 00:04:00,
2013-10-10 20:06:00,78.2,70.8,29.92,WNW,300,4.0,6.0,78,0.00,,CLR,0.00,VWS V14.01,2013-10-11 00:06:00,
2013-10-10 20:07:00,78.2,70.8,29.92,NW,326,3.0,6.0,78,0.00,,CLR,0.00,VWS V14.01,2013-10-11 00:07:00,
2013-10-10 20:09:00,78.2,70.8,29.92,NNW,338,2.0,6.0,78,0.00,,CLR,0.00,VWS V14.01,2013-10-11 00:09:00,
2013-10-10 20:11:00,78.1,71.1,29.92,NNW,342,3.0,3.0,79,0.00,,CLR,0.00,VWS V14.01,2013-10-11 00:11:00,
2013-10-10 20:12:00,78.1,71.1,29.92,NNW,333,2.0,3.0,79,0.00,,CLR,0.00,VWS V14.01,2013-10-11 00:12:00,
2013-10-10 20:14:00,78.0,71.0,29.92,NNW,338,3.0,6.0,79,0.00,,CLR,0.00,VWS V14.01,2013-10-11 00:14:00,
2013-10-10 20:15:00,78.0,71.0,29.92,NW,304,2.0,6.0,79,0.00,,CLR,0.00,VWS V14.01,2013-10-11 00:15:00,
2013-10-10 20:17:00,77.9,70.9,29.92,North,352,2.0,4.0,79,0.00,,CLR,0.00,VWS V14.01,2013-10-11 00:17:00,
2013-10-10 20:19:00,77.9,70.9,29.92,NW,321,3.0,5.0,79,0.00,,CLR,0.00,VWS V14.01,2013-10-11 00:19:00,
2013-10-10 20:20:00,77.9,70.9,29.92,NNE,13,1.0,5.0,79,0.00,,CLR,0.00,VWS V14.01,2013-10-11 00:20:00,
2013-10-10 20:22:00,77.9,70.9,29.92,NNW,334,2.0,5.0,79,0.00,,CLR,0.00,VWS V14.01,2013-10-11 00:22:00,
2013-10-10 20:25:00,77.8,70.8,29.92,NNW,330,1.0,5.0,79,0.00,,CLR,0.00,VWS V14.01,2013-10-11 00:25:00,
2013-10-10 20:27:00,77.7,70.7,29.93,NNW,338,2.0,3.0,79,0.00,,CLR,0.00,VWS V14.01,2013-10-11 00:27:00,
2013-10-10 20:30:00,77.7,71.0,29.93,WNW,290,2.0,5.0,80,0.00,,CLR,0.00,VWS V14.01,2013-10-11 00:30:00,
2013-10-10 20:32:00,77.7,71.0,29.93,North,7,2.0,5.0,80,0.00,,CLR,0.00,VWS V14.01,2013-10-11 00:32:00,
2013-10-10 20:33:00,77.7,71.0,29.93,NNW,330,3.0,5.0,80,0.00,,CLR,0.00,VWS V14.01,2013-10-11 00:33:00,
2013-10-10 20:35:00,77.6,70.9,29.93,NW,326,3.0,5.0,80,0.00,,CLR,0.00,VWS V14.01,2013-10-11 00:35:00,
2013-10-10 20:37:00,77.6,70.9,29.93,NW,323,3.0,5.0,80,0.00,,CLR,0.00,VWS V14.01,2013-10-11 00:37:00,
2013-10-10 20:38:00,77.6,70.9,29.93,NW,323,1.0,5.0,80,0.00,,CLR,0.00,VWS V14.01,2013-10-11 00:38:00,
2013-10-10 20:39:00,77.6,70.9,29.93,NW,326,3.0,5.0,80,0.00,,CLR,0.00,VWS V14.01,2013-10-11 00:39:00,
2013-10-10 20:40:00,77.6,70.9,29.93,NNW,338,2.0,6.0,80,0.00,,CLR,0.00,VWS V14.01,2013-10-11 00:40:00,
2013-10-10 20:42:00,77.5,70.8,29.93,NW,326,3.0,4.0,80,0.00,,CLR,0.00,VWS V14.01,2013-10-11 00:42:00,
2013-10-10 20:43:00,77.5,70.8,29.93,WNW,291,2.0,4.0,80,0.00,,CLR,0.00,VWS V14.01,2013-10-11 00:43:00,
2013-10-10 20:44:00,77.5,70.8,29.93,NW,312,0.0,6.0,80,0.00,,CLR,0.00,VWS V14.01,2013-10-11 00:44:00,
2013-10-10 20:45:00,77.5,70.8,29.93,NW,323,2.0,6.0,80,0.00,,CLR,0.00,VWS V14.01,2013-10-11 00:45:00,
2013-10-10 20:46:00,77.5,70.8,29.93,NW,321,1.0,2.0,80,0.00,,CLR,0.00,VWS V14.01,2013-10-11 00:46:00,
2013-10-10 20:47:00,77.4,70.8,29.93,NNW,343,2.0,2.0,80,0.00,,CLR,0.00,VWS V14.01,2013-10-11 00:47:00,
2013-10-10 20:48:00,77.4,70.8,29.93,NNW,330,3.0,4.0,80,0.00,,CLR,0.00,VWS V14.01,2013-10-11 00:48:00,
2013-10-10 20:49:00,77.4,70.8,29.93,NNW,332,3.0,4.0,80,0.00,,CLR,0.00,VWS V14.01,2013-10-11 00:49:00,
2013-10-10 20:50:00,77.4,70.8,29.93,NW,321,1.0,4.0,80,0.00,,CLR,0.00,VWS V14.01,2013-10-11 00:50:00,
2013-10-10 20:52:00,77.4,70.8,29.93,NW,326,0.0,2.0,80,0.00,,CLR,0.00,VWS V14.01,2013-10-11 00:52:00,
2013-10-10 20:53:00,77.3,71.0,29.94,NNW,334,1.0,2.0,81,0.00,,CLR,0.00,VWS V14.01,2013-10-11 00:53:00,
2013-10-10 20:54:00,77.3,71.0,29.94,NW,319,1.0,2.0,81,0.00,,CLR,0.00,VWS V14.01,2013-10-11 00:54:00,
2013-10-10 20:56:00,77.2,70.9,29.93,NNW,340,3.0,4.0,81,0.00,,CLR,0.00,VWS V14.01,2013-10-11 00:56:00,
2013-10-10 20:57:00,77.2,70.9,29.94,NW,319,2.0,3.0,81,0.00,,CLR,0.00,VWS V14.01,2013-10-11 00:57:00,
2013-10-10 20:59:00,77.2,70.9,29.94,NNW,347,2.0,3.0,81,0.00,,CLR,0.00,VWS V14.01,2013-10-11 00:59:00,
2013-10-10 21:00:00,77.1,70.8,29.94,North,360,1.0,3.0,81,0.00,,CLR,0.00,VWS V14.01,2013-10-11 01:00:00,
2013-10-10 21:01:00,77.1,70.8,29.94,NW,323,2.0,4.0,81,0.00,,CLR,0.00,VWS V14.01,2013-10-11 01:01:00,
2013-10-10 21:03:00,77.1,70.8,29.94,NNW,328,0.0,2.0,81,0.00,,CLR,0.00,VWS V14.01,2013-10-11 01:03:00,
2013-10-10 21:04:00,77.0,70.7,29.94,North,1,2.0,2.0,81,0.00,,CLR,0.00,VWS V14.01,2013-10-11 01:04:00,
2013-10-10 21:05:00,77.0,70.7,29.94,NNW,343,1.0,2.0,81,0.00,,CLR,0.00,VWS V14.01,2013-10-11 01:05:00,
2013-10-10 21:06:00,77.0,70.7,29.94,North,4,2.0,3.0,81,0.00,,CLR,0.00,VWS V14.01,2013-10-11 01:06:00,
2013-10-10 21:08:00,77.0,70.7,29.94,NNE,14,3.0,3.0,81,0.00,,CLR,0.00,VWS V14.01,2013-10-11 01:08:00,
2013-10-10 21:09:00,77.0,70.7,29.94,NNW,344,2.0,3.0,81,0.00,,CLR,0.00,VWS V14.01,2013-10-11 01:09:00,
2013-10-10 21:10:00,76.9,70.6,29.94,North,5,1.0,3.0,81,0.00,,CLR,0.00,VWS V14.01,2013-10-11 01:10:00,
2013-10-10 21:11:00,76.9,70.6,29.94,NNW,347,1.0,2.0,81,0.00,,CLR,0.00,VWS V14.01,2013-10-11 01:11:00,
2013-10-10 21:12:00,76.9,70.6,29.94,North,4,2.0,2.0,81,0.00,,CLR,0.00,VWS V14.01,2013-10-11 01:12:00,
2013-10-10 21:13:00,76.9,70.6,29.94,North,349,2.0,2.0,81,0.00,,CLR,0.00,VWS V14.01,2013-10-11 01:13:00,
2013-10-10 21:14:00,76.9,70.6,29.94,NNW,335,2.0,2.0,81,0.00,,CLR,0.00,VWS V14.01,2013-10-11 01:14:00,
2013-10-10 21:15:00,76.8,70.9,29.94,NNW,335,0.0,2.0,82,0.00,,CLR,0.00,VWS V14.01,2013-10-11 01:15:00,
2013-10-10 21:16:00,76.8,70.9,29.94,NNW,335,1.0,1.0,82,0.00,,CLR,0.00,VWS V14.01,2013-10-11 01:16:00,
2013-10-10 21:17:00,76.8,70.9,29.94,NNW,344,1.0,1.0,82,0.00,,CLR,0.00,VWS V14.01,2013-10-11 01:17:00,
2013-10-10 21:18:00,76.7,70.8,29.94,North,358,2.0,2.0,82,0.00,,CLR,0.00,VWS V14.01,2013-10-11 01:18:00,
2013-10-10 21:19:00,76.7,70.8,29.94,North,359,0.0,2.0,82,0.00,,CLR,0.00,VWS V14.01,2013-10-11 01:19:00,
2013-10-10 21:20:00,76.6,70.7,29.94,North,359,1.0,2.0,82,0.00,,CLR,0.00,VWS V14.01,2013-10-11 01:20:00,
2013-10-10 21:21:00,76.6,70.7,29.94,North,359,1.0,2.0,82,0.00,,CLR,0.00,VWS V14.01,2013-10-11 01:21:00,
2013-10-10 21:22:00,76.6,70.7,29.94,North,7,0.0,1.0,82,0.00,,CLR,0.00,VWS V14.01,2013-10-11 01:22:00,
2013-10-10 21:23:00,76.5,70.6,29.94,North,8,0.0,1.0,82,0.00,,CLR,0.00,VWS V14.01,2013-10-11 01:23:00,
2013-10-10 21:25:00,76.4,70.5,29.94,North,8,0.0,1.0,82,0.00,,CLR,0.00,VWS V14.01,2013-10-11 01:25:00,
2013-10-10 21:26:00,76.3,70.4,29.94,North,8,0.0,1.0,82,0.00,,CLR,0.00,VWS V14.01,2013-10-11 01:26:00,
2013-10-10 21:27:00,76.2,70.3,29.94,North,8,1.0,1.0,82,0.00,,CLR,0.00,VWS V14.01,2013-10-11 01:27:00,
2013-10-10 21:28:00,76.1,70.6,29.94,North,7,0.0,1.0,83,0.00,,CLR,0.00,VWS V14.01,2013-10-11 01:28:00,
2013-10-10 21:30:00,75.9,70.4,29.95,North,7,0.0,1.0,83,0.00,,CLR,0.00,VWS V14.01,2013-10-11 01:30:00,
2013-10-10 21:31:00,75.9,70.4,29.95,North,7,0.0,0.0,83,0.00,,CLR,0.00,VWS V14.01,2013-10-11 01:31:00,
2013-10-10 21:32:00,75.8,70.3,29.95,North,8,1.0,1.0,83,0.00,,CLR,0.00,VWS V14.01,2013-10-11 01:32:00,
2013-10-10 21:34:00,75.6,70.4,29.95,NNE,13,1.0,1.0,84,0.00,,CLR,0.00,VWS V14.01,2013-10-11 01:34:00,
2013-10-10 21:35:00,75.5,70.3,29.95,NNE,30,0.0,2.0,84,0.00,,CLR,0.00,VWS V14.01,2013-10-11 01:35:00,
2013-10-10 21:36:00,75.5,70.3,29.95,NNE,30,2.0,2.0,84,0.00,,CLR,0.00,VWS V14.01,2013-10-11 01:36:00,
2013-10-10 21:37:00,75.5,70.3,29.95,NNE,30,1.0,2.0,84,0.00,,CLR,0.00,VWS V14.01,2013-10-11 01:37:00,
2013-10-10 21:39:00,75.4,70.2,29.95,NE,40,0.0,2.0,84,0.00,,CLR,0.00,VWS V14.01,2013-10-11 01:39:00,
2013-10-10 21:41:00,75.4,70.2,29.95,NE,38,1.0,2.0,84,0.00,,CLR,0.00,VWS V14.01,2013-10-11 01:41:00,
2013-10-10 21:42:00,75.4,70.2,29.95,NNE,25,2.0,3.0,84,0.00,,CLR,0.00,VWS V14.01,2013-10-11 01:42:00,
2013-10-10 21:43:00,75.3,70.1,29.95,NE,43,2.0,3.0,84,0.00,,CLR,0.00,VWS V14.01,2013-10-11 01:43:00,
2013-10-10 21:44:00,75.3,70.1,29.95,NE,42,2.0,3.0,84,0.00,,CLR,0.00,VWS V14.01,2013-10-11 01:44:00,
2013-10-10 21:46:00,75.3,70.1,29.95,NE,39,3.0,3.0,84,0.00,,CLR,0.00,VWS V14.01,2013-10-11 01:46:00,
2013-10-10 21:47:00,75.3,70.1,29.95,NNE,30,2.0,3.0,84,0.00,,CLR,0.00,VWS V14.01,2013-10-11 01:47:00,
2013-10-10 21:48:00,75.3,70.5,29.95,North,1,4.0,5.0,85,0.00,,CLR,0.00,VWS V14.01,2013-10-11 01:48:00,
2013-10-10 21:49:00,75.3,70.5,29.95,North,7,2.0,5.0,85,0.00,,CLR,0.00,VWS V14.01,2013-10-11 01:49:00,
2013-10-10 21:51:00,75.4,70.2,29.95,North,353,1.0,5.0,84,0.00,,CLR,0.00,VWS V14.01,2013-10-11 01:51:00,
2013-10-10 21:52:00,75.4,70.2,29.95,North,358,2.0,4.0,84,0.00,,CLR,0.00,VWS V14.01,2013-10-11 01:52:00,
2013-10-10 21:54:00,75.4,70.2,29.95,NNE,23,1.0,4.0,84,0.00,,CLR,0.00,VWS V14.01,2013-10-11 01:54:00,
2013-10-10 21:56:00,75.3,70.1,29.95,NNE,30,2.0,2.0,84,0.00,,CLR,0.00,VWS V14.01,2013-10-11 01:56:00,
2013-10-10 21:57:00,75.3,70.5,29.95,NNE,29,1.0,2.0,85,0.00,,CLR,0.00,VWS V14.01,2013-10-11 01:57:00,
2013-10-10 21:59:00,75.2,70.4,29.95,NNW,343,2.0,5.0,85,0.00,,CLR,0.00,VWS V14.01,2013-10-11 01:59:00,
2013-10-10 22:01:00,75.2,70.4,29.95,NNE,12,2.0,4.0,85,0.00,,CLR,0.00,VWS V14.01,2013-10-11 02:01:00,
2013-10-10 22:02:00,75.3,70.5,29.95,NNE,13,2.0,4.0,85,0.00,,CLR,0.00,VWS V14.01,2013-10-11 02:02:00,
2013-10-10 22:04:00,75.3,70.5,29.95,NNE,25,2.0,4.0,85,0.00,,CLR,0.00,VWS V14.01,2013-10-11 02:04:00,
2013-10-10 22:05:00,75.3,70.5,29.95,NNE,26,1.0,4.0,85,0.00,,CLR,0.00,VWS V14.01,2013-10-11 02:05:00,
2013-10-10 22:06:00,75.3,70.5,29.95,NNE,20,3.0,3.0,85,0.00,,CLR,0.00,VWS V14.01,2013-10-11 02:06:00,
2013-10-10 22:07:00,75.3,70.5,29.95,NNE,20,3.0,3.0,85,0.00,,CLR,0.00,VWS V14.01,2013-10-11 02:07:00,
2013-10-10 22:08:00,75.2,70.4,29.95,NNE,20,1.0,3.0,85,0.00,,CLR,0.00,VWS V14.01,2013-10-11 02:08:00,
2013-10-10 22:09:00,75.2,70.4,29.95,North,4,3.0,3.0,85,0.00,,CLR,0.00,VWS V14.01,2013-10-11 02:09:00,
2013-10-10 22:10:00,75.2,70.4,29.95,NNE,25,2.0,3.0,85,0.00,,CLR,0.00,VWS V14.01,2013-10-11 02:10:00,
2013-10-10 22:12:00,75.1,70.3,29.95,NE,41,2.0,4.0,85,0.00,,CLR,0.00,VWS V14.01,2013-10-11 02:12:00,
2013-10-10 22:13:00,75.1,70.3,29.95,NNE,12,3.0,4.0,85,0.00,,CLR,0.00,VWS V14.01,2013-10-11 02:13:00,
2013-10-10 22:14:00,75.0,70.2,29.95,North,6,4.0,4.0,85,0.00,,CLR,0.00,VWS V14.01,2013-10-11 02:14:00,
2013-10-10 22:15:00,75.0,70.2,29.95,NNE,30,3.0,4.0,85,0.00,,CLR,0.00,VWS V14.01,2013-10-11 02:15:00,
2013-10-10 22:17:00,74.9,70.1,29.95,North,5,4.0,4.0,85,0.00,,CLR,0.00,VWS V14.01,2013-10-11 02:17:00,
2013-10-10 22:18:00,74.9,70.1,29.95,NNE,13,4.0,4.0,85,0.00,,CLR,0.00,VWS V14.01,2013-10-11 02:18:00,
2013-10-10 22:19:00,74.9,70.1,29.95,North,352,3.0,4.0,85,0.00,,CLR,0.00,VWS V14.01,2013-10-11 02:19:00,
2013-10-10 22:20:00,75.0,70.2,29.95,NNE,13,2.0,4.0,85,0.00,,CLR,0.00,VWS V14.01,2013-10-11 02:20:00,
2013-10-10 22:22:00,74.9,70.1,29.95,NNE,32,2.0,3.0,85,0.00,,CLR,0.00,VWS V14.01,2013-10-11 02:22:00,
2013-10-10 22:23:00,74.9,70.1,29.95,NNE,32,2.0,3.0,85,0.00,,CLR,0.00,VWS V14.01,2013-10-11 02:23:00,
2013-10-10 22:24:00,74.9,70.1,29.95,NNE,12,2.0,5.0,85,0.00,,CLR,0.00,VWS V14.01,2013-10-11 02:24:00,
2013-10-10 22:25:00,74.9,70.1,29.95,NNE,12,3.0,5.0,85,0.00,,CLR,0.00,VWS V14.01,2013-10-11 02:25:00,
2013-10-10 22:27:00,74.9,70.1,29.95,NNE,13,1.0,5.0,85,0.00,,CLR,0.00,VWS V14.01,2013-10-11 02:27:00,
2013-10-10 22:28:00,74.9,70.1,29.95,NNE,27,2.0,5.0,85,0.00,,CLR,0.00,VWS V14.01,2013-10-11 02:28:00,
2013-10-10 22:29:00,74.9,70.1,29.95,NNE,30,2.0,5.0,85,0.00,,CLR,0.00,VWS V14.01,2013-10-11 02:29:00,
2013-10-10 22:30:00,74.9,70.1,29.95,NNE,29,2.0,5.0,85,0.00,,CLR,0.00,VWS V14.01,2013-10-11 02:30:00,
2013-10-10 22:32:00,74.9,70.1,29.95,NNE,15,3.0,3.0,85,0.00,,CLR,0.00,VWS V14.01,2013-10-11 02:32:00,
2013-10-10 22:33:00,74.8,70.0,29.95,NNE,13,2.0,4.0,85,0.00,,CLR,0.00,VWS V14.01,2013-10-11 02:33:00,
2013-10-10 22:34:00,74.8,70.0,29.95,North,6,2.0,4.0,85,0.00,,CLR,0.00,VWS V14.01,2013-10-11 02:34:00,
2013-10-10 22:35:00,74.8,70.0,29.95,NNE,18,2.0,4.0,85,0.00,,CLR,0.00,VWS V14.01,2013-10-11 02:35:00,
2013-10-10 22:36:00,74.8,70.0,29.95,NNE,25,1.0,4.0,85,0.00,,CLR,0.00,VWS V14.01,2013-10-11 02:36:00,
2013-10-10 22:37:00,74.8,70.0,29.95,NNE,13,2.0,3.0,85,0.00,,CLR,0.00,VWS V14.01,2013-10-11 02:37:00,
2013-10-10 22:38:00,74.8,70.0,29.95,North,8,2.0,3.0,85,0.00,,CLR,0.00,VWS V14.01,2013-10-11 02:38:00,
2013-10-10 22:39:00,74.7,69.9,29.95,NNE,30,3.0,3.0,85,0.00,,CLR,0.00,VWS V14.01,2013-10-11 02:39:00,
2013-10-10 22:40:00,74.7,69.9,29.95,NNE,23,2.0,3.0,85,0.00,,CLR,0.00,VWS V14.01,2013-10-11 02:40:00,
2013-10-10 22:41:00,74.6,69.8,29.95,North,6,3.0,4.0,85,0.00,,CLR,0.00,VWS V14.01,2013-10-11 02:41:00,
2013-10-10 22:42:00,74.6,69.8,29.95,NNE,20,2.0,5.0,85,0.00,,CLR,0.00,VWS V14.01,2013-10-11 02:42:00,
2013-10-10 22:43:00,74.6,69.8,29.95,NNE,20,1.0,5.0,85,0.00,,CLR,0.00,VWS V14.01,2013-10-11 02:43:00,
2013-10-10 22:44:00,74.6,69.8,29.95,NNE,20,2.0,5.0,85,0.00,,CLR,0.00,VWS V14.01,2013-10-11 02:44:00,
2013-10-10 22:45:00,74.5,69.7,29.95,North,7,2.0,5.0,85,0.00,,CLR,0.00,VWS V14.01,2013-10-11 02:45:00,
2013-10-10 22:46:00,74.5,69.7,29.95,NNE,18,3.0,3.0,85,0.00,,CLR,0.00,VWS V14.01,2013-10-11 02:46:00,
2013-10-10 22:47:00,74.5,69.7,29.95,NNE,20,3.0,4.0,85,0.00,,CLR,0.00,VWS V14.01,2013-10-11 02:47:00,
2013-10-10 22:48:00,74.4,69.9,29.95,NNE,30,2.0,4.0,86,0.00,,CLR,0.00,VWS V14.01,2013-10-11 02:48:00,
2013-10-10 22:49:00,74.4,69.9,29.95,NNE,23,2.0,4.0,86,0.00,,CLR,0.00,VWS V14.01,2013-10-11 02:49:00,
2013-10-10 22:50:00,74.4,69.9,29.95,NNE,26,2.0,4.0,86,0.00,,CLR,0.00,VWS V14.01,2013-10-11 02:50:00,
2013-10-10 22:52:00,74.3,69.8,29.95,NNE,20,2.0,4.0,86,0.00,,CLR,0.00,VWS V14.01,2013-10-11 02:52:00,
2013-10-10 22:53:00,74.3,69.8,29.95,NNE,16,2.0,4.0,86,0.00,,CLR,0.00,VWS V14.01,2013-10-11 02:53:00,
2013-10-10 22:54:00,74.3,69.8,29.95,NNE,20,2.0,4.0,86,0.00,,CLR,0.00,VWS V14.01,2013-10-11 02:54:00,
2013-10-10 22:55:00,74.3,69.8,29.95,NNE,18,1.0,4.0,86,0.00,,CLR,0.00,VWS V14.01,2013-10-11 02:55:00,
2013-10-10 22:57:00,74.2,69.8,29.95,NNE,19,2.0,2.0,86,0.00,,CLR,0.00,VWS V14.01,2013-10-11 02:57:00,
2013-10-10 22:58:00,74.2,69.8,29.95,NNE,23,1.0,2.0,86,0.00,,CLR,0.00,VWS V14.01,2013-10-11 02:58:00,
2013-10-10 22:59:00,74.1,69.7,29.95,NNE,25,1.0,3.0,86,0.00,,CLR,0.00,VWS V14.01,2013-10-11 02:59:00,
2013-10-10 23:00:00,74.1,69.7,29.95,NNE,25,1.0,3.0,86,0.00,,CLR,0.00,VWS V14.01,2013-10-11 03:00:00,
2013-10-10 23:02:00,74.0,69.6,29.95,NE,49,2.0,3.0,86,0.00,,CLR,0.00,VWS V14.01,2013-10-11 03:02:00,
2013-10-10 23:03:00,74.0,69.6,29.95,NE,48,2.0,3.0,86,0.00,,CLR,0.00,VWS V14.01,2013-10-11 03:03:00,
2013-10-10 23:04:00,74.0,69.6,29.95,NE,48,1.0,3.0,86,0.00,,CLR,0.00,VWS V14.01,2013-10-11 03:04:00,
2013-10-10 23:05:00,73.9,69.4,29.95,NE,48,2.0,3.0,86,0.00,,CLR,0.00,VWS V14.01,2013-10-11 03:05:00,
2013-10-10 23:07:00,73.8,69.7,29.95,ENE,59,1.0,2.0,87,0.00,,CLR,0.00,VWS V14.01,2013-10-11 03:07:00,
2013-10-10 23:09:00,73.7,69.6,29.95,ENE,60,1.0,2.0,87,0.00,,CLR,0.00,VWS V14.01,2013-10-11 03:09:00,
2013-10-10 23:10:00,73.6,69.5,29.95,ENE,60,1.0,2.0,87,0.00,,CLR,0.00,VWS V14.01,2013-10-11 03:10:00,
2013-10-10 23:12:00,73.5,69.4,29.95,ENE,60,2.0,2.0,87,0.00,,CLR,0.00,VWS V14.01,2013-10-11 03:12:00,
2013-10-10 23:13:00,73.5,69.7,29.95,ENE,59,2.0,2.0,88,0.00,,CLR,0.00,VWS V14.01,2013-10-11 03:13:00,
2013-10-10 23:14:00,73.4,69.6,29.95,NE,48,1.0,3.0,88,0.00,,CLR,0.00,VWS V14.01,2013-10-11 03:14:00,
2013-10-10 23:15:00,73.3,69.5,29.95,ENE,57,1.0,3.0,88,0.00,,CLR,0.00,VWS V14.01,2013-10-11 03:15:00,
2013-10-10 23:17:00,73.3,69.5,29.96,ENE,68,2.0,3.0,88,0.00,,CLR,0.00,VWS V14.01,2013-10-11 03:17:00,
2013-10-10 23:18:00,73.3,69.5,29.95,ENE,68,0.0,3.0,88,0.00,,CLR,0.00,VWS V14.01,2013-10-11 03:18:00,
2013-10-10 23:19:00,73.2,69.4,29.95,ENE,68,0.0,3.0,88,0.00,,CLR,0.00,VWS V14.01,2013-10-11 03:19:00,
2013-10-10 23:20:00,73.2,69.4,29.95,ENE,68,1.0,3.0,88,0.00,,CLR,0.00,VWS V14.01,2013-10-11 03:20:00,
2013-10-10 23:23:00,73.1,69.3,29.96,ENE,68,1.0,2.0,88,0.00,,CLR,0.00,VWS V14.01,2013-10-11 03:23:00,
2013-10-10 23:24:00,73.1,69.3,29.96,NE,51,2.0,3.0,88,0.00,,CLR,0.00,VWS V14.01,2013-10-11 03:24:00,
2013-10-10 23:25:00,73.1,69.3,29.95,ENE,57,1.0,4.0,88,0.00,,CLR,0.00,VWS V14.01,2013-10-11 03:25:00,
2013-10-10 23:26:00,73.1,69.3,29.95,NE,56,1.0,4.0,88,0.00,,CLR,0.00,VWS V14.01,2013-10-11 03:26:00,
2013-10-10 23:28:00,73.2,69.1,29.95,NE,51,2.0,3.0,87,0.00,,CLR,0.00,VWS V14.01,2013-10-11 03:28:00,
2013-10-10 23:29:00,73.3,69.2,29.95,NE,51,1.0,3.0,87,0.00,,CLR,0.00,VWS V14.01,2013-10-11 03:29:00,
2013-10-10 23:30:00,73.3,69.2,29.95,NE,51,1.0,3.0,87,0.00,,CLR,0.00,VWS V14.01,2013-10-11 03:30:00,
2013-10-10 23:31:00,73.3,69.2,29.95,NE,51,1.0,1.0,87,0.00,,CLR,0.00,VWS V14.01,2013-10-11 03:31:00,
2013-10-10 23:33:00,73.4,69.0,29.95,NE,50,2.0,4.0,86,0.00,,CLR,0.00,VWS V14.01,2013-10-11 03:33:00,
2013-10-10 23:34:00,73.4,69.0,29.95,ENE,60,3.0,4.0,86,0.00,,CLR,0.00,VWS V14.01,2013-10-11 03:34:00,
2013-10-10 23:35:00,73.5,69.1,29.95,ENE,62,2.0,4.0,86,0.00,,CLR,0.00,VWS V14.01,2013-10-11 03:35:00,
2013-10-10 23:36:00,73.5,69.1,29.96,ENE,59,1.0,2.0,86,0.00,,CLR,0.00,VWS V14.01,2013-10-11 03:36:00,
2013-10-10 23:38:00,73.6,68.8,29.95,East,84,1.0,4.0,85,0.00,,CLR,0.00,VWS V14.01,2013-10-11 03:38:00,
2013-10-10 23:40:00,73.6,68.8,29.95,East,81,1.0,4.0,85,0.00,,CLR,0.00,VWS V14.01,2013-10-11 03:40:00,
2013-10-10 23:41:00,73.6,68.8,29.95,East,79,2.0,2.0,85,0.00,,CLR,0.00,VWS V14.01,2013-10-11 03:41:00,
2013-10-10 23:43:00,73.6,68.8,29.95,ENE,75,1.0,3.0,85,0.00,,CLR,0.00,VWS V14.01,2013-10-11 03:43:00,
2013-10-10 23:45:00,73.6,68.8,29.95,NE,46,2.0,4.0,85,0.00,,CLR,0.00,VWS V14.01,2013-10-11 03:45:00,
2013-10-10 23:46:00,73.6,68.5,29.95,East,83,2.0,4.0,84,0.00,,CLR,0.00,VWS V14.01,2013-10-11 03:46:00,
2013-10-10 23:49:00,73.6,68.5,29.95,East,94,1.0,4.0,84,0.00,,CLR,0.00,VWS V14.01,2013-10-11 03:49:00,
2013-10-10 23:50:00,73.6,68.5,29.95,ENE,66,2.0,4.0,84,0.00,,CLR,0.00,VWS V14.01,2013-10-11 03:50:00,
2013-10-10 23:51:00,73.6,68.5,29.95,East,83,2.0,2.0,84,0.00,,CLR,0.00,VWS V14.01,2013-10-11 03:51:00,
2013-10-10 23:54:00,73.6,68.5,29.95,ENE,68,3.0,5.0,84,0.00,,CLR,0.00,VWS V14.01,2013-10-11 03:54:00,
2013-10-10 23:55:00,73.6,68.5,29.95,ENE,67,3.0,5.0,84,0.00,,CLR,0.00,VWS V14.01,2013-10-11 03:55:00,
2013-10-10 23:56:00,73.6,68.5,29.95,ENE,57,4.0,5.0,84,0.00,,CLR,0.00,VWS V14.01,2013-10-11 03:56:00,
2013-10-10 23:57:00,73.6,68.5,29.95,East,94,4.0,4.0,84,0.00,,CLR,0.00,VWS V14.01,2013-10-11 03:57:00,
2013-10-10 23:59:00,73.6,68.5,29.95,East,94,4.0,6.0,84,0.00,,CLR,0.00,VWS V14.01,2013-10-11 03:59:00,